Wetterdaten: Samstag, 20.01.2018
Datum Zeit Temp. Aussen Temp. o. S. +5cm Feuchte Auss BlattFeu 1 Luftdruck Regen Sonnenschein Regendauer Solar Windben Empfang
20.01.2018 00:00 2,3 C 2,2 C 0,6 C 91 % 0 lf 1008,5 hPa 0,0 l/m 0 min 0 min 0 W/m 13,5 km/h (3 Bft) 100,00 %
20.01.2018 00:02 2,3 C 2,2 C 0,6 C 91 % 0 lf 1008,4 hPa 0,0 l/m 0 min 0 min 0 W/m 20,3 km/h (4 Bft) 12,50 %
20.01.2018 00:04 2,3 C 2,2 C 0,6 C 91 % 0 lf 1008,5 hPa 0,0 l/m 0 min 0 min 0 W/m 24,8 km/h (4 Bft) 82,35 %
20.01.2018 00:08 2,3 C 2,2 C 0,6 C 91 % 0 lf 1008,4 hPa 0,0 l/m 0 min 0 min 0 W/m 24,8 km/h (4 Bft) 98,95 %
20.01.2018 00:10 2,3 C 2,2 C 0,6 C 92 % 0 lf 1008,5 hPa 0,0 l/m 0 min 0 min 0 W/m 15,8 km/h (3 Bft) 97,87 %
20.01.2018 00:12 2,3 C 2,2 C 0,6 C 91 % 0 lf 1008,5 hPa 0,0 l/m 0 min 0 min 0 W/m 15,8 km/h (3 Bft) 100,00 %
20.01.2018 00:14 2,3 C 2,2 C 1,1 C 92 % 0 lf 1008,4 hPa 0,0 l/m 0 min 0 min 0 W/m 22,5 km/h (4 Bft) 100,00 %
20.01.2018 00:16 2,3 C 2,2 C 1,1 C 92 % 0 lf 1008,5 hPa 0,0 l/m 0 min 0 min 0 W/m 15,8 km/h (3 Bft) 93,62 %
20.01.2018 00:18 2,3 C 2,2 C 1,1 C 92 % 0 lf 1008,5 hPa 0,0 l/m 0 min 0 min 0 W/m 15,8 km/h (3 Bft) 97,87 %
20.01.2018 00:20 2,3 C 2,2 C 1,1 C 92 % 0 lf 1008,5 hPa 0,0 l/m 0 min 0 min 0 W/m 18,0 km/h (3 Bft) 97,83 %
20.01.2018 00:22 2,4 C 2,2 C 1,1 C 92 % 0 lf 1008,5 hPa 0,0 l/m 0 min 0 min 0 W/m 15,8 km/h (3 Bft) 95,74 %
20.01.2018 00:24 2,4 C 2,2 C 1,1 C 92 % 0 lf 1008,5 hPa 0,0 l/m 0 min 0 min 0 W/m 24,8 km/h (4 Bft) 97,87 %
20.01.2018 00:26 2,4 C 2,2 C 1,1 C 92 % 0 lf 1008,5 hPa 0,0 l/m 0 min 0 min 0 W/m 22,5 km/h (4 Bft) 95,74 %
20.01.2018 00:28 2,4 C 2,8 C 1,1 C 92 % 0 lf 1008,4 hPa 0,0 l/m 0 min 0 min 0 W/m 24,8 km/h (4 Bft) 93,62 %
20.01.2018 00:30 2,4 C 2,2 C 1,1 C 92 % 0 lf 1008,4 hPa 0,0 l/m 0 min 0 min 0 W/m 18,0 km/h (3 Bft) 91,49 %
20.01.2018 00:32 2,4 C 2,2 C 1,1 C 92 % 0 lf 1008,5 hPa 0,0 l/m 0 min 0 min 0 W/m 20,3 km/h (4 Bft) 93,48 %
20.01.2018 00:34 2,4 C 2,8 C 1,1 C 92 % 0 lf 1008,5 hPa 0,0 l/m 0 min 0 min 0 W/m 29,3 km/h (5 Bft) 97,87 %
20.01.2018 00:36 2,5 C 2,8 C 1,1 C 91 % 3 lf 1008,4 hPa 0,0 l/m 0 min 2 min 0 W/m 22,5 km/h (4 Bft) 95,74 %
20.01.2018 00:38 2,5 C 2,8 C 1,1 C 91 % 3 lf 1008,4 hPa 0,0 l/m 0 min 2 min 0 W/m 20,3 km/h (4 Bft) 95,74 %
20.01.2018 00:40 2,5 C 2,8 C 1,1 C 91 % 2 lf 1008,4 hPa 0,0 l/m 0 min 0 min 0 W/m 18,0 km/h (3 Bft) 95,74 %
20.01.2018 00:42 2,5 C 2,2 C 1,1 C 91 % 2 lf 1008,4 hPa 0,0 l/m 0 min 0 min 0 W/m 18,0 km/h (3 Bft) 97,83 %
20.01.2018 00:44 2,6 C 2,8 C 1,1 C 91 % 2 lf 1008,4 hPa 0,0 l/m 0 min 0 min 0 W/m 18,0 km/h (3 Bft) 97,87 %
20.01.2018 00:46 2,5 C 2,8 C 1,1 C 91 % 1 lf 1008,4 hPa 0,0 l/m 0 min 0 min 0 W/m 22,5 km/h (4 Bft) 93,62 %
20.01.2018 00:48 2,6 C 2,8 C 1,1 C 91 % 0 lf 1008,5 hPa 0,0 l/m 0 min 0 min 0 W/m 18,0 km/h (3 Bft) 93,62 %
20.01.2018 00:50 2,6 C 2,2 C 1,1 C 91 % 0 lf 1008,4 hPa 0,0 l/m 0 min 0 min 0 W/m 22,5 km/h (4 Bft) 95,74 %
20.01.2018 00:52 2,6 C 2,2 C 1,1 C 91 % 0 lf 1008,5 hPa 0,0 l/m 0 min 0 min 0 W/m 13,5 km/h (3 Bft) 95,74 %
20.01.2018 00:54 2,6 C 2,2 C 1,1 C 91 % 0 lf 1008,5 hPa 0,0 l/m 0 min 0 min 0 W/m 15,8 km/h (3 Bft) 95,65 %
20.01.2018 00:56 2,6 C 2,8 C 1,1 C 91 % 0 lf 1008,5 hPa 0,0 l/m 0 min 0 min 0 W/m 24,8 km/h (4 Bft) 91,49 %
20.01.2018 00:58 2,6 C 2,8 C 1,1 C 91 % 0 lf 1008,5 hPa 0,0 l/m 0 min 0 min 0 W/m 18,0 km/h (3 Bft) 95,74 %
20.01.2018 01:00 2,6 C 2,8 C 1,1 C 91 % 0 lf 1008,5 hPa 0,0 l/m 0 min 0 min 0 W/m 22,5 km/h (4 Bft) 95,74 %
20.01.2018 01:02 2,6 C 2,8 C 1,1 C 91 % 0 lf 1008,5 hPa 0,0 l/m 0 min 0 min 0 W/m 18,0 km/h (3 Bft) 91,49 %
20.01.2018 01:04 2,6 C 2,2 C 1,1 C 91 % 0 lf 1008,5 hPa 0,0 l/m 0 min 0 min 0 W/m 20,3 km/h (4 Bft) 93,62 %
20.01.2018 01:06 2,6 C 2,8 C 1,1 C 91 % 0 lf 1008,5 hPa 0,0 l/m 0 min 0 min 0 W/m 22,5 km/h (4 Bft) 95,65 %
20.01.2018 01:08 2,6 C 2,8 C 1,1 C 91 % 0 lf 1008,5 hPa 0,0 l/m 0 min 0 min 0 W/m 27,0 km/h (4 Bft) 97,87 %
20.01.2018 01:10 2,6 C 2,8 C 1,1 C 91 % 0 lf 1008,5 hPa 0,0 l/m 0 min 0 min 0 W/m 24,8 km/h (4 Bft) 97,87 %
20.01.2018 01:12 2,6 C 2,8 C 1,7 C 91 % 0 lf 1008,5 hPa 0,0 l/m 0 min 0 min 0 W/m 22,5 km/h (4 Bft) 93,62 %
20.01.2018 01:14 2,6 C 2,8 C 1,1 C 91 % 0 lf 1008,4 hPa 0,0 l/m 0 min 0 min 0 W/m 13,5 km/h (3 Bft) 93,62 %
20.01.2018 01:16 2,6 C 2,8 C 1,1 C 91 % 0 lf 1008,5 hPa 0,0 l/m 0 min 0 min 0 W/m 18,0 km/h (3 Bft) 95,74 %
20.01.2018 01:18 2,6 C 2,8 C 1,7 C 91 % 0 lf 1008,5 hPa 0,0 l/m 0 min 0 min 0 W/m 15,8 km/h (3 Bft) 97,83 %
20.01.2018 01:20 2,6 C 2,8 C 1,7 C 91 % 0 lf 1008,5 hPa 0,0 l/m 0 min 0 min 0 W/m 20,3 km/h (4 Bft) 97,87 %
20.01.2018 01:22 2,6 C 2,8 C 1,7 C 91 % 0 lf 1008,5 hPa 0,0 l/m 0 min 0 min 0 W/m 22,5 km/h (4 Bft) 97,87 %
20.01.2018 01:24 2,6 C 2,8 C 1,7 C 91 % 0 lf 1008,5 hPa 0,0 l/m 0 min 0 min 0 W/m 18,0 km/h (3 Bft) 97,87 %
20.01.2018 01:26 2,6 C 2,8 C 1,7 C 91 % 0 lf 1008,5 hPa 0,0 l/m 0 min 0 min 0 W/m 20,3 km/h (4 Bft) 97,87 %
20.01.2018 01:28 2,6 C 2,8 C 1,7 C 91 % 0 lf 1008,6 hPa 0,0 l/m 0 min 0 min 0 W/m 13,5 km/h (3 Bft) 93,62 %
20.01.2018 01:30 2,6 C 2,8 C 1,7 C 91 % 0 lf 1008,6 hPa 0,0 l/m 0 min 0 min 0 W/m 20,3 km/h (4 Bft) 97,83 %
20.01.2018 01:32 2,6 C 2,8 C 1,7 C 91 % 0 lf 1008,6 hPa 0,0 l/m 0 min 0 min 0 W/m 13,5 km/h (3 Bft) 95,74 %
20.01.2018 01:34 2,6 C 2,8 C 1,7 C 91 % 0 lf 1008,6 hPa 0,0 l/m 0 min 0 min 0 W/m 22,5 km/h (4 Bft) 93,62 %
20.01.2018 01:36 2,6 C 2,8 C 1,7 C 91 % 2 lf 1008,6 hPa 0,0 l/m 0 min 0 min 0 W/m 18,0 km/h (3 Bft) 97,87 %
20.01.2018 01:38 2,6 C 2,8 C 1,7 C 91 % 11 lf 1008,6 hPa 0,0 l/m 0 min 2 min 0 W/m 20,3 km/h (4 Bft) 97,87 %
20.01.2018 01:40 2,6 C 2,8 C 1,1 C 91 % 15 lf 1008,7 hPa 0,0 l/m 0 min 2 min 0 W/m 20,3 km/h (4 Bft) 91,49 %
20.01.2018 01:42 2,6 C 2,2 C 1,1 C 91 % 15 lf 1008,7 hPa 0,0 l/m 0 min 2 min 0 W/m 15,8 km/h (3 Bft) 95,65 %
20.01.2018 01:44 2,6 C 2,2 C 1,1 C 91 % 15 lf 1008,7 hPa 0,0 l/m 0 min 2 min 0 W/m 11,3 km/h (2 Bft) 95,74 %
20.01.2018 01:46 2,6 C 2,2 C 1,1 C 91 % 15 lf 1008,7 hPa 0,0 l/m 0 min 2 min 0 W/m 13,5 km/h (3 Bft) 97,87 %
20.01.2018 01:48 2,6 C 2,2 C 1,1 C 91 % 15 lf 1008,7 hPa 0,0 l/m 0 min 2 min 0 W/m 11,3 km/h (2 Bft) 97,87 %
20.01.2018 01:50 2,6 C 2,2 C 1,1 C 91 % 15 lf 1008,6 hPa 0,0 l/m 0 min 2 min 0 W/m 18,0 km/h (3 Bft) 97,87 %
20.01.2018 01:52 2,6 C 2,2 C 1,1 C 91 % 15 lf 1008,7 hPa 0,2 l/m 0 min 2 min 0 W/m 13,5 km/h (3 Bft) 95,65 %
20.01.2018 01:54 2,6 C 2,2 C 0,6 C 91 % 15 lf 1008,6 hPa 0,0 l/m 0 min 0 min 0 W/m 15,8 km/h (3 Bft) 95,74 %
20.01.2018 01:56 2,6 C 2,2 C 0,6 C 91 % 15 lf 1008,6 hPa 0,0 l/m 0 min 0 min 0 W/m 15,8 km/h (3 Bft) 97,87 %
20.01.2018 01:58 2,6 C 1,7 C 0,6 C 91 % 15 lf 1008,5 hPa 0,0 l/m 0 min 2 min 0 W/m 9,0 km/h (2 Bft) 100,00 %
20.01.2018 02:00 2,5 C 1,7 C 0,6 C 91 % 15 lf 1008,5 hPa 0,0 l/m 0 min 2 min 0 W/m 6,8 km/h (2 Bft) 100,00 %
20.01.2018 02:02 2,5 C 1,7 C 0,6 C 91 % 15 lf 1008,5 hPa 0,0 l/m 0 min 2 min 0 W/m 6,8 km/h (2 Bft) 100,00 %
20.01.2018 02:04 2,5 C 1,7 C 0,6 C 91 % 15 lf 1008,5 hPa 0,0 l/m 0 min 2 min 0 W/m 4,5 km/h (1 Bft) 100,00 %
20.01.2018 02:06 2,4 C 1,7 C 0,6 C 91 % 15 lf 1008,5 hPa 0,0 l/m 0 min 0 min 0 W/m 4,5 km/h (1 Bft) 100,00 %
20.01.2018 02:08 2,4 C 1,7 C 0,6 C 91 % 15 lf 1008,5 hPa 0,0 l/m 0 min 0 min 0 W/m 6,8 km/h (2 Bft) 100,00 %
20.01.2018 02:10 2,4 C 1,7 C 0,6 C 91 % 15 lf 1008,5 hPa 0,0 l/m 0 min 0 min 0 W/m 11,3 km/h (2 Bft) 100,00 %
20.01.2018 02:12 2,4 C 1,7 C 0,6 C 91 % 15 lf 1008,4 hPa 0,0 l/m 0 min 0 min 0 W/m 4,5 km/h (1 Bft) 97,87 %
20.01.2018 02:14 2,4 C 1,7 C 0,6 C 92 % 15 lf 1008,4 hPa 0,0 l/m 0 min 0 min 0 W/m 2,3 km/h (1 Bft) 100,00 %
20.01.2018 02:16 2,3 C 1,7 C 0,6 C 92 % 15 lf 1008,4 hPa 0,0 l/m 0 min 0 min 0 W/m 4,5 km/h (1 Bft) 100,00 %
20.01.2018 02:18 2,3 C 1,7 C 0,6 C 92 % 15 lf 1008,4 hPa 0,0 l/m 0 min 0 min 0 W/m 4,5 km/h (1 Bft) 100,00 %
20.01.2018 02:20 2,3 C 1,7 C 0,6 C 92 % 15 lf 1008,3 hPa 0,0 l/m 0 min 0 min 0 W/m 4,5 km/h (1 Bft) 100,00 %
20.01.2018 02:22 2,3 C 1,7 C 0,6 C 91 % 15 lf 1008,3 hPa 0,0 l/m 0 min 0 min 0 W/m 11,3 km/h (2 Bft) 100,00 %
20.01.2018 02:24 2,3 C 1,7 C 0,6 C 92 % 15 lf 1008,4 hPa 0,0 l/m 0 min 0 min 0 W/m 9,0 km/h (2 Bft) 100,00 %
20.01.2018 02:26 2,3 C 1,7 C 0,6 C 92 % 15 lf 1008,4 hPa 0,0 l/m 0 min 0 min 0 W/m 9,0 km/h (2 Bft) 100,00 %
20.01.2018 02:28 2,3 C 1,7 C 0,6 C 92 % 15 lf 1008,3 hPa 0,0 l/m 0 min 0 min 0 W/m 9,0 km/h (2 Bft) 100,00 %
20.01.2018 02:30 2,3 C 1,7 C 0,6 C 92 % 15 lf 1008,3 hPa 0,0 l/m 0 min 0 min 0 W/m 9,0 km/h (2 Bft) 100,00 %
20.01.2018 02:32 2,2 C 1,7 C 0,6 C 92 % 15 lf 1008,3 hPa 0,0 l/m 0 min 0 min 0 W/m 4,5 km/h (1 Bft) 100,00 %
20.01.2018 02:34 2,2 C 1,7 C 0,6 C 92 % 15 lf 1008,3 hPa 0,0 l/m 0 min 0 min 0 W/m 9,0 km/h (2 Bft) 100,00 %
20.01.2018 02:36 2,2 C 1,7 C 0,6 C 92 % 15 lf 1008,3 hPa 0,0 l/m 0 min 0 min 0 W/m 15,8 km/h (3 Bft) 97,87 %
20.01.2018 02:38 2,2 C 1,7 C 0,6 C 92 % 15 lf 1008,3 hPa 0,0 l/m 0 min 0 min 0 W/m 9,0 km/h (2 Bft) 100,00 %
20.01.2018 02:40 2,2 C 1,7 C 0,6 C 92 % 15 lf 1008,3 hPa 0,0 l/m 0 min 0 min 0 W/m 11,3 km/h (2 Bft) 93,48 %
20.01.2018 02:42 2,2 C 2,2 C 1,1 C 92 % 15 lf 1008,3 hPa 0,0 l/m 0 min 0 min 0 W/m 15,8 km/h (3 Bft) 95,74 %
20.01.2018 02:44 2,2 C 2,2 C 0,6 C 92 % 15 lf 1008,3 hPa 0,0 l/m 0 min 0 min 0 W/m 13,5 km/h (3 Bft) 97,87 %
20.01.2018 02:46 2,2 C 1,7 C 0,6 C 92 % 15 lf 1008,3 hPa 0,0 l/m 0 min 0 min 0 W/m 9,0 km/h (2 Bft) 95,74 %
20.01.2018 02:48 2,2 C 2,2 C 0,6 C 92 % 15 lf 1008,3 hPa 0,0 l/m 0 min 0 min 0 W/m 15,8 km/h (3 Bft) 95,74 %
20.01.2018 02:50 2,2 C 2,2 C 0,6 C 92 % 15 lf 1008,3 hPa 0,0 l/m 0 min 0 min 0 W/m 13,5 km/h (3 Bft) 97,87 %
20.01.2018 02:52 2,2 C 2,2 C 0,6 C 93 % 15 lf 1008,3 hPa 0,0 l/m 0 min 0 min 0 W/m 15,8 km/h (3 Bft) 95,65 %
20.01.2018 02:54 2,2 C 2,2 C 0,6 C 93 % 15 lf 1008,3 hPa 0,0 l/m 0 min 2 min 0 W/m 22,5 km/h (4 Bft) 95,74 %
20.01.2018 02:56 2,2 C 2,2 C 0,6 C 93 % 15 lf 1008,3 hPa 0,0 l/m 0 min 0 min 0 W/m 22,5 km/h (4 Bft) 93,62 %
20.01.2018 02:58 2,3 C 2,2 C 0,6 C 93 % 15 lf 1008,3 hPa 0,0 l/m 0 min 0 min 0 W/m 15,8 km/h (3 Bft) 95,74 %
20.01.2018 03:00 2,2 C 1,7 C 0,6 C 93 % 15 lf 1008,3 hPa 0,0 l/m 0 min 0 min 0 W/m 20,3 km/h (4 Bft) 95,74 %
20.01.2018 03:02 2,2 C 1,7 C 0,6 C 93 % 15 lf 1008,3 hPa 0,0 l/m 0 min 0 min 0 W/m 22,5 km/h (4 Bft) 93,48 %
20.01.2018 03:04 2,3 C 2,2 C 0,6 C 93 % 15 lf 1008,2 hPa 0,0 l/m 0 min 0 min 0 W/m 20,3 km/h (4 Bft) 95,74 %
20.01.2018 03:06 2,3 C 2,2 C 0,6 C 93 % 14 lf 1008,2 hPa 0,0 l/m 0 min 0 min 0 W/m 11,3 km/h (2 Bft) 93,62 %
20.01.2018 03:08 2,2 C 1,7 C 0,6 C 93 % 14 lf 1008,2 hPa 0,0 l/m 0 min 0 min 0 W/m 11,3 km/h (2 Bft) 95,74 %
20.01.2018 03:10 2,2 C 2,2 C 0,6 C 93 % 14 lf 1008,2 hPa 0,0 l/m 0 min 0 min 0 W/m 24,8 km/h (4 Bft) 97,87 %
20.01.2018 03:12 2,3 C 1,7 C 0,6 C 93 % 13 lf 1008,3 hPa 0,0 l/m 0 min 0 min 0 W/m 18,0 km/h (3 Bft) 95,74 %
20.01.2018 03:14 2,2 C 1,7 C 0,6 C 93 % 13 lf 1008,2 hPa 0,0 l/m 0 min 0 min 0 W/m 11,3 km/h (2 Bft) 95,65 %
20.01.2018 03:16 2,2 C 2,2 C 0,6 C 93 % 12 lf 1008,2 hPa 0,0 l/m 0 min 0 min 0 W/m 20,3 km/h (4 Bft) 95,74 %
20.01.2018 03:18 2,3 C 2,2 C 0,6 C 93 % 12 lf 1008,2 hPa 0,0 l/m 0 min 0 min 0 W/m 24,8 km/h (4 Bft) 93,62 %
20.01.2018 03:20 2,3 C 1,7 C 0,6 C 93 % 11 lf 1008,2 hPa 0,0 l/m 0 min 0 min 0 W/m 15,8 km/h (3 Bft) 93,62 %
20.01.2018 03:22 2,3 C 1,7 C 0,6 C 93 % 10 lf 1008,3 hPa 0,0 l/m 0 min 0 min 0 W/m 20,3 km/h (4 Bft) 85,11 %
20.01.2018 03:24 2,3 C 1,7 C 0,6 C 93 % 10 lf 1008,2 hPa 0,0 l/m 0 min 0 min 0 W/m 20,3 km/h (4 Bft) 93,62 %
20.01.2018 03:26 2,3 C 1,7 C 0,0 C 93 % 9 lf 1008,2 hPa 0,0 l/m 0 min 0 min 0 W/m 18,0 km/h (3 Bft) 95,65 %
20.01.2018 03:28 2,2 C 1,7 C 0,0 C 93 % 8 lf 1008,2 hPa 0,0 l/m 0 min 0 min 0 W/m 13,5 km/h (3 Bft) 95,74 %
20.01.2018 03:30 2,2 C 1,7 C 0,0 C 93 % 8 lf 1008,2 hPa 0,0 l/m 0 min 0 min 0 W/m 11,3 km/h (2 Bft) 93,62 %
20.01.2018 03:32 2,2 C 1,7 C 0,0 C 93 % 7 lf 1008,1 hPa 0,0 l/m 0 min 0 min 0 W/m 11,3 km/h (2 Bft) 95,74 %
20.01.2018 03:34 2,2 C 1,7 C 0,0 C 93 % 7 lf 1008,1 hPa 0,0 l/m 0 min 0 min 0 W/m 13,5 km/h (3 Bft) 95,74 %
20.01.2018 03:36 2,2 C 1,7 C 0,0 C 93 % 6 lf 1008,1 hPa 0,0 l/m 0 min 0 min 0 W/m 15,8 km/h (3 Bft) 95,74 %
20.01.2018 03:38 2,2 C 1,7 C 0,0 C 93 % 5 lf 1008,1 hPa 0,0 l/m 0 min 0 min 0 W/m 15,8 km/h (3 Bft) 93,48 %
20.01.2018 03:40 2,1 C 1,7 C 0,0 C 93 % 4 lf 1008,1 hPa 0,0 l/m 0 min 0 min 0 W/m 18,0 km/h (3 Bft) 91,49 %
20.01.2018 03:42 2,1 C 1,7 C 0,0 C 93 % 4 lf 1008,1 hPa 0,0 l/m 0 min 0 min 0 W/m 22,5 km/h (4 Bft) 95,74 %
20.01.2018 03:44 2,1 C 1,7 C 0,0 C 93 % 4 lf 1008,1 hPa 0,0 l/m 0 min 0 min 0 W/m 18,0 km/h (3 Bft) 95,74 %
20.01.2018 03:46 2,1 C 1,7 C 0,0 C 93 % 4 lf 1008,0 hPa 0,0 l/m 0 min 0 min 0 W/m 15,8 km/h (3 Bft) 95,12 %
20.01.2018 03:48 2,1 C 1,1 C 0,0 C 93 % 4 lf 1008,0 hPa 0,0 l/m 0 min 0 min 0 W/m 9,0 km/h (2 Bft) 95,74 %
20.01.2018 03:50 2,1 C 1,1 C 0,0 C 93 % 3 lf 1008,0 hPa 0,0 l/m 0 min 0 min 0 W/m 18,0 km/h (3 Bft) 93,62 %
20.01.2018 03:52 2,1 C 1,7 C 0,0 C 93 % 3 lf 1008,0 hPa 0,0 l/m 0 min 0 min 0 W/m 20,3 km/h (4 Bft) 93,62 %
20.01.2018 03:54 2,1 C 1,7 C 0,0 C 93 % 3 lf 1008,0 hPa 0,0 l/m 0 min 0 min 0 W/m 15,8 km/h (3 Bft) 91,49 %
20.01.2018 03:56 2,0 C 1,1 C 0,0 C 93 % 3 lf 1008,0 hPa 0,0 l/m 0 min 0 min 0 W/m 18,0 km/h (3 Bft) 93,48 %
20.01.2018 03:58 2,0 C 1,1 C 0,0 C 93 % 2 lf 1008,0 hPa 0,0 l/m 0 min 0 min 0 W/m 22,5 km/h (4 Bft) 89,36 %
20.01.2018 04:00 2,0 C 1,7 C 0,0 C 93 % 2 lf 1008,0 hPa 0,0 l/m 0 min 0 min 0 W/m 20,3 km/h (4 Bft) 91,49 %
20.01.2018 04:02 2,0 C 1,7 C 0,0 C 93 % 2 lf 1008,0 hPa 0,0 l/m 0 min 0 min 0 W/m 18,0 km/h (3 Bft) 100,00 %
20.01.2018 04:04 2,0 C 1,7 C 0,0 C 93 % 2 lf 1007,9 hPa 0,0 l/m 0 min 0 min 0 W/m 15,8 km/h (3 Bft) 91,49 %
20.01.2018 04:06 2,0 C 1,1 C 0,0 C 93 % 1 lf 1007,8 hPa 0,0 l/m 0 min 0 min 0 W/m 13,5 km/h (3 Bft) 96,15 %
20.01.2018 04:08 1,9 C 1,1 C 0,0 C 93 % 1 lf 1007,8 hPa 0,0 l/m 0 min 0 min 0 W/m 18,0 km/h (3 Bft) 97,56 %
20.01.2018 04:10 1,9 C 1,1 C 0,0 C 93 % 1 lf 1007,7 hPa 0,0 l/m 0 min 0 min 0 W/m 18,0 km/h (3 Bft) 97,87 %
20.01.2018 04:12 1,9 C 1,1 C 0,0 C 93 % 1 lf 1007,6 hPa 0,0 l/m 0 min 2 min 0 W/m 20,3 km/h (4 Bft) 97,87 %
20.01.2018 04:14 1,9 C 1,1 C 0,0 C 93 % 0 lf 1007,7 hPa 0,0 l/m 0 min 0 min 0 W/m 13,5 km/h (3 Bft) 95,74 %
20.01.2018 04:16 1,9 C 1,1 C 0,0 C 93 % 0 lf 1007,7 hPa 0,0 l/m 0 min 0 min 0 W/m 15,8 km/h (3 Bft) 97,87 %
20.01.2018 04:18 1,9 C 1,1 C 0,0 C 93 % 0 lf 1007,6 hPa 0,0 l/m 0 min 0 min 0 W/m 18,0 km/h (3 Bft) 97,87 %
20.01.2018 04:20 1,9 C 1,1 C 0,0 C 93 % 0 lf 1007,6 hPa 0,0 l/m 0 min 0 min 0 W/m 15,8 km/h (3 Bft) 96,15 %
20.01.2018 04:22 1,9 C 1,1 C 0,0 C 93 % 0 lf 1007,6 hPa 0,0 l/m 0 min 0 min 0 W/m 13,5 km/h (3 Bft) 97,56 %
20.01.2018 04:24 1,9 C 1,1 C 0,0 C 93 % 0 lf 1007,6 hPa 0,0 l/m 0 min 0 min 0 W/m 20,3 km/h (4 Bft) 91,49 %
20.01.2018 04:26 1,9 C 1,1 C 0,0 C 93 % 0 lf 1007,6 hPa 0,0 l/m 0 min 0 min 0 W/m 15,8 km/h (3 Bft) 95,74 %
20.01.2018 04:28 1,9 C 1,1 C 0,0 C 93 % 0 lf 1007,5 hPa 0,0 l/m 0 min 0 min 0 W/m 18,0 km/h (3 Bft) 93,62 %
20.01.2018 04:30 1,9 C 1,1 C 0,0 C 93 % 0 lf 1007,5 hPa 0,0 l/m 0 min 0 min 0 W/m 15,8 km/h (3 Bft) 95,74 %
20.01.2018 04:32 1,9 C 1,7 C 0,0 C 93 % 0 lf 1007,5 hPa 0,0 l/m 0 min 0 min 0 W/m 18,0 km/h (3 Bft) 97,83 %
20.01.2018 04:34 1,9 C 1,7 C 0,0 C 94 % 0 lf 1007,4 hPa 0,0 l/m 0 min 0 min 0 W/m 20,3 km/h (4 Bft) 97,87 %
20.01.2018 04:36 1,9 C 1,7 C 0,0 C 94 % 0 lf 1007,4 hPa 0,0 l/m 0 min 0 min 0 W/m 15,8 km/h (3 Bft) 96,23 %
20.01.2018 04:38 1,9 C 1,7 C 0,0 C 94 % 0 lf 1007,4 hPa 0,0 l/m 0 min 0 min 0 W/m 15,8 km/h (3 Bft) 97,87 %
20.01.2018 04:40 1,9 C 1,7 C 0,0 C 94 % 0 lf 1007,4 hPa 0,0 l/m 0 min 0 min 0 W/m 18,0 km/h (3 Bft) 95,74 %
20.01.2018 04:42 1,9 C 1,7 C 0,0 C 94 % 0 lf 1007,3 hPa 0,0 l/m 0 min 0 min 0 W/m 15,8 km/h (3 Bft) 97,87 %
20.01.2018 04:44 1,9 C 1,7 C 0,0 C 94 % 0 lf 1007,3 hPa 0,0 l/m 0 min 0 min 0 W/m 20,3 km/h (4 Bft) 97,87 %
20.01.2018 04:46 1,9 C 1,7 C 0,0 C 94 % 0 lf 1007,3 hPa 0,0 l/m 0 min 0 min 0 W/m 11,3 km/h (2 Bft) 95,65 %
20.01.2018 04:48 2,0 C 1,7 C 0,0 C 94 % 0 lf 1007,3 hPa 0,0 l/m 0 min 0 min 0 W/m 18,0 km/h (3 Bft) 97,87 %
20.01.2018 04:50 1,9 C 1,7 C 0,0 C 94 % 0 lf 1007,3 hPa 0,0 l/m 0 min 0 min 0 W/m 13,5 km/h (3 Bft) 95,74 %
20.01.2018 04:52 1,9 C 1,7 C 0,0 C 94 % 0 lf 1007,2 hPa 0,0 l/m 0 min 0 min 0 W/m 18,0 km/h (3 Bft) 97,87 %
20.01.2018 04:54 1,9 C 1,7 C 0,0 C 94 % 0 lf 1007,2 hPa 0,0 l/m 0 min 0 min 0 W/m 18,0 km/h (3 Bft) 97,87 %
20.01.2018 04:56 1,9 C 1,7 C 0,0 C 94 % 0 lf 1007,1 hPa 0,0 l/m 0 min 0 min 0 W/m 18,0 km/h (3 Bft) 95,74 %
20.01.2018 04:58 1,9 C 1,7 C 0,0 C 94 % 0 lf 1007,2 hPa 0,0 l/m 0 min 0 min 0 W/m 20,3 km/h (4 Bft) 100,00 %
20.01.2018 05:00 2,0 C 1,7 C 0,0 C 94 % 0 lf 1007,1 hPa 0,0 l/m 0 min 0 min 0 W/m 15,8 km/h (3 Bft) 97,87 %
20.01.2018 05:02 2,0 C 1,7 C 0,0 C 94 % 0 lf 1007,1 hPa 0,0 l/m 0 min 0 min 0 W/m 11,3 km/h (2 Bft) 97,62 %
20.01.2018 05:04 2,0 C 1,7 C 0,0 C 94 % 0 lf 1007,1 hPa 0,0 l/m 0 min 0 min 0 W/m 22,5 km/h (4 Bft) 100,00 %
20.01.2018 05:06 2,0 C 1,7 C 0,0 C 94 % 0 lf 1007,0 hPa 0,0 l/m 0 min 0 min 0 W/m 15,8 km/h (3 Bft) 100,00 %
20.01.2018 05:08 2,0 C 1,7 C 0,0 C 94 % 0 lf 1007,1 hPa 0,0 l/m 0 min 0 min 0 W/m 18,0 km/h (3 Bft) 95,74 %
20.01.2018 05:10 2,0 C 1,7 C 0,0 C 94 % 0 lf 1007,1 hPa 0,0 l/m 0 min 0 min 0 W/m 22,5 km/h (4 Bft) 100,00 %
20.01.2018 05:12 2,0 C 1,7 C 0,0 C 94 % 0 lf 1007,1 hPa 0,0 l/m 0 min 2 min 0 W/m 18,0 km/h (3 Bft) 100,00 %
20.01.2018 05:14 2,0 C 1,7 C 0,0 C 94 % 0 lf 1007,0 hPa 0,0 l/m 0 min 0 min 0 W/m 22,5 km/h (4 Bft) 100,00 %
20.01.2018 05:16 2,0 C 1,7 C 0,0 C 94 % 0 lf 1007,0 hPa 0,0 l/m 0 min 0 min 0 W/m 24,8 km/h (4 Bft) 97,87 %
20.01.2018 05:18 2,1 C 1,7 C 0,0 C 94 % 0 lf 1007,0 hPa 0,0 l/m 0 min 2 min 0 W/m 18,0 km/h (3 Bft) 100,00 %
20.01.2018 05:20 2,0 C 1,7 C 0,0 C 94 % 0 lf 1007,0 hPa 0,0 l/m 0 min 0 min 0 W/m 18,0 km/h (3 Bft) 97,87 %
20.01.2018 05:22 2,0 C 1,7 C 0,0 C 94 % 0 lf 1007,0 hPa 0,0 l/m 0 min 0 min 0 W/m 20,3 km/h (4 Bft) 100,00 %
20.01.2018 05:24 2,0 C 1,7 C 0,0 C 94 % 0 lf 1007,0 hPa 0,0 l/m 0 min 0 min 0 W/m 18,0 km/h (3 Bft) 97,87 %
20.01.2018 05:26 2,0 C 1,7 C 0,0 C 94 % 0 lf 1007,0 hPa 0,0 l/m 0 min 0 min 0 W/m 22,5 km/h (4 Bft) 100,00 %
20.01.2018 05:28 2,0 C 1,7 C 0,0 C 94 % 0 lf 1007,0 hPa 0,0 l/m 0 min 0 min 0 W/m 15,8 km/h (3 Bft) 100,00 %
20.01.2018 05:30 2,0 C 1,7 C 0,0 C 94 % 0 lf 1007,0 hPa 0,0 l/m 0 min 0 min 0 W/m 13,5 km/h (3 Bft) 100,00 %
20.01.2018 05:32 1,9 C 1,7 C 0,0 C 94 % 0 lf 1007,0 hPa 0,0 l/m 0 min 0 min 0 W/m 22,5 km/h (4 Bft) 100,00 %
20.01.2018 05:34 1,9 C 1,7 C 0,0 C 94 % 0 lf 1007,0 hPa 0,0 l/m 0 min 0 min 0 W/m 20,3 km/h (4 Bft) 100,00 %
20.01.2018 05:35 1,9 C 1,7 C 0,0 C 94 % 0 lf 1006,9 hPa 0,0 l/m 0 min 0 min 0 W/m 22,5 km/h (4 Bft) 100,00 %
20.01.2018 05:40 1,9 C 1,7 C 0,0 C 94 % 0 lf 1007,0 hPa 0,0 l/m 0 min 5 min 0 W/m 27,0 km/h (4 Bft) 30,70 %
20.01.2018 05:46 1,9 C 1,7 C 0,0 C 94 % 0 lf 1006,8 hPa 0,0 l/m 0 min 0 min 0 W/m 9,0 km/h (2 Bft) 100,00 %
20.01.2018 05:48 1,9 C 1,7 C 0,0 C 94 % 0 lf 1006,8 hPa 0,0 l/m 0 min 0 min 0 W/m 13,5 km/h (3 Bft) 100,00 %
20.01.2018 05:50 1,9 C 1,7 C 0,0 C 94 % 0 lf 1006,8 hPa 0,0 l/m 0 min 0 min 0 W/m 13,5 km/h (3 Bft) 100,00 %
20.01.2018 05:52 1,9 C 1,7 C 0,0 C 94 % 0 lf 1006,7 hPa 0,0 l/m 0 min 0 min 0 W/m 13,5 km/h (3 Bft) 100,00 %
20.01.2018 05:54 1,9 C 1,7 C 0,0 C 94 % 0 lf 1006,7 hPa 0,0 l/m 0 min 0 min 0 W/m 9,0 km/h (2 Bft) 97,87 %
20.01.2018 05:56 1,9 C 1,7 C 0,0 C 94 % 0 lf 1006,7 hPa 0,0 l/m 0 min 0 min 0 W/m 13,5 km/h (3 Bft) 100,00 %
20.01.2018 05:58 1,9 C 1,7 C 0,0 C 94 % 0 lf 1006,7 hPa 0,0 l/m 0 min 0 min 0 W/m 15,8 km/h (3 Bft) 100,00 %
20.01.2018 06:00 1,9 C 1,7 C 0,0 C 94 % 0 lf 1006,7 hPa 0,0 l/m 0 min 0 min 0 W/m 11,3 km/h (2 Bft) 100,00 %
20.01.2018 06:02 1,9 C 1,7 C 0,0 C 94 % 0 lf 1006,6 hPa 0,0 l/m 0 min 0 min 0 W/m 15,8 km/h (3 Bft) 100,00 %
20.01.2018 06:04 1,9 C 1,7 C 0,0 C 94 % 0 lf 1006,7 hPa 0,0 l/m 0 min 0 min 0 W/m 22,5 km/h (4 Bft) 95,74 %
20.01.2018 06:06 1,9 C 1,7 C 0,0 C 94 % 0 lf 1006,6 hPa 0,0 l/m 0 min 2 min 0 W/m 24,8 km/h (4 Bft) 95,83 %
20.01.2018 06:08 1,9 C 2,2 C 0,6 C 94 % 0 lf 1006,7 hPa 0,0 l/m 0 min 2 min 0 W/m 22,5 km/h (4 Bft) 97,87 %
20.01.2018 06:10 2,0 C 2,2 C 0,6 C 94 % 0 lf 1006,6 hPa 0,0 l/m 0 min 0 min 0 W/m 22,5 km/h (4 Bft) 100,00 %
20.01.2018 06:12 2,0 C 2,2 C 0,6 C 94 % 0 lf 1006,5 hPa 0,0 l/m 0 min 0 min 0 W/m 13,5 km/h (3 Bft) 100,00 %
20.01.2018 06:14 2,0 C 2,2 C 0,0 C 94 % 0 lf 1006,6 hPa 0,0 l/m 0 min 0 min 0 W/m 15,8 km/h (3 Bft) 97,87 %
20.01.2018 06:16 2,1 C 1,7 C 0,0 C 94 % 0 lf 1006,5 hPa 0,0 l/m 0 min 0 min 0 W/m 13,5 km/h (3 Bft) 95,24 %
20.01.2018 06:18 2,1 C 2,2 C 0,6 C 94 % 0 lf 1006,5 hPa 0,0 l/m 0 min 0 min 0 W/m 27,0 km/h (4 Bft) 93,62 %
20.01.2018 06:20 2,1 C 2,2 C 0,0 C 94 % 0 lf 1006,5 hPa 0,0 l/m 0 min 0 min 0 W/m 18,0 km/h (3 Bft) 91,67 %
20.01.2018 06:22 2,1 C 1,7 C 0,6 C 94 % 0 lf 1006,4 hPa 0,0 l/m 0 min 0 min 0 W/m 20,3 km/h (4 Bft) 91,49 %
20.01.2018 06:24 2,1 C 2,2 C 0,6 C 94 % 0 lf 1006,4 hPa 0,0 l/m 0 min 0 min 0 W/m 18,0 km/h (3 Bft) 93,75 %
20.01.2018 06:26 2,1 C 1,7 C 0,6 C 94 % 0 lf 1006,5 hPa 0,0 l/m 0 min 0 min 0 W/m 13,5 km/h (3 Bft) 93,75 %
20.01.2018 06:28 2,1 C 2,2 C 0,6 C 94 % 0 lf 1006,5 hPa 0,0 l/m 0 min 0 min 0 W/m 22,5 km/h (4 Bft) 93,75 %
20.01.2018 06:30 2,1 C 2,2 C 0,0 C 94 % 0 lf 1006,5 hPa 0,0 l/m 0 min 2 min 0 W/m 18,0 km/h (3 Bft) 95,74 %
20.01.2018 06:32 2,1 C 1,7 C 0,0 C 94 % 0 lf 1006,5 hPa 0,0 l/m 0 min 0 min 0 W/m 18,0 km/h (3 Bft) 91,49 %
20.01.2018 06:34 2,1 C 1,7 C 0,0 C 94 % 0 lf 1006,5 hPa 0,0 l/m 0 min 0 min 0 W/m 22,5 km/h (4 Bft) 93,48 %
20.01.2018 06:36 2,2 C 2,2 C 0,6 C 94 % 0 lf 1006,4 hPa 0,0 l/m 0 min 0 min 0 W/m 22,5 km/h (4 Bft) 87,23 %
20.01.2018 06:38 2,2 C 2,2 C 0,6 C 94 % 0 lf 1006,4 hPa 0,0 l/m 0 min 0 min 0 W/m 20,3 km/h (4 Bft) 92,86 %
20.01.2018 06:40 2,2 C 2,2 C 0,6 C 94 % 0 lf 1006,4 hPa 0,0 l/m 0 min 2 min 0 W/m 15,8 km/h (3 Bft) 91,67 %
20.01.2018 06:42 2,2 C 1,7 C 0,0 C 94 % 0 lf 1006,4 hPa 0,0 l/m 0 min 0 min 0 W/m 15,8 km/h (3 Bft) 91,67 %
20.01.2018 06:44 2,2 C 2,2 C 0,6 C 94 % 0 lf 1006,4 hPa 0,0 l/m 0 min 0 min 0 W/m 27,0 km/h (4 Bft) 97,92 %
20.01.2018 06:46 2,2 C 1,7 C 0,6 C 94 % 0 lf 1006,4 hPa 0,0 l/m 0 min 0 min 0 W/m 18,0 km/h (3 Bft) 93,75 %
20.01.2018 06:48 2,2 C 2,2 C 0,6 C 94 % 0 lf 1006,4 hPa 0,0 l/m 0 min 0 min 0 W/m 20,3 km/h (4 Bft) 95,74 %
20.01.2018 06:50 2,2 C 2,2 C 0,6 C 94 % 0 lf 1006,4 hPa 0,0 l/m 0 min 0 min 0 W/m 20,3 km/h (4 Bft) 93,62 %
20.01.2018 06:52 2,2 C 2,2 C 0,6 C 94 % 0 lf 1006,4 hPa 0,0 l/m 0 min 0 min 0 W/m 18,0 km/h (3 Bft) 95,74 %
20.01.2018 06:54 2,2 C 2,2 C 0,6 C 94 % 0 lf 1006,4 hPa 0,0 l/m 0 min 0 min 0 W/m 20,3 km/h (4 Bft) 95,74 %
20.01.2018 06:56 2,3 C 2,2 C 0,6 C 94 % 0 lf 1006,4 hPa 0,0 l/m 0 min 0 min 0 W/m 22,5 km/h (4 Bft) 95,74 %
20.01.2018 06:58 2,3 C 2,2 C 0,6 C 94 % 0 lf 1006,3 hPa 0,0 l/m 0 min 0 min 0 W/m 20,3 km/h (4 Bft) 95,65 %
20.01.2018 07:00 2,3 C 2,2 C 0,6 C 94 % 0 lf 1006,3 hPa 0,0 l/m 0 min 0 min 0 W/m 18,0 km/h (3 Bft) 95,74 %
20.01.2018 07:02 2,3 C 2,2 C 0,6 C 94 % 0 lf 1006,3 hPa 0,0 l/m 0 min 0 min 0 W/m 20,3 km/h (4 Bft) 95,56 %
20.01.2018 07:04 2,3 C 2,2 C 0,6 C 94 % 0 lf 1006,2 hPa 0,0 l/m 0 min 0 min 0 W/m 13,5 km/h (3 Bft) 97,96 %
20.01.2018 07:06 2,3 C 2,2 C 0,6 C 94 % 0 lf 1006,3 hPa 0,0 l/m 0 min 0 min 0 W/m 13,5 km/h (3 Bft) 97,92 %
20.01.2018 07:08 2,3 C 2,2 C 0,6 C 94 % 0 lf 1006,3 hPa 0,0 l/m 0 min 0 min 0 W/m 15,8 km/h (3 Bft) 100,00 %
20.01.2018 07:10 2,3 C 2,2 C 0,6 C 94 % 0 lf 1006,3 hPa 0,0 l/m 0 min 0 min 0 W/m 18,0 km/h (3 Bft) 100,00 %
20.01.2018 07:12 2,3 C 2,2 C 0,6 C 94 % 0 lf 1006,2 hPa 0,0 l/m 0 min 0 min 0 W/m 20,3 km/h (4 Bft) 95,24 %
20.01.2018 07:14 2,3 C 2,2 C 0,6 C 94 % 0 lf 1006,2 hPa 0,0 l/m 0 min 0 min 0 W/m 22,5 km/h (4 Bft) 97,92 %
20.01.2018 07:16 2,3 C 2,2 C 0,6 C 94 % 0 lf 1006,2 hPa 0,0 l/m 0 min 0 min 0 W/m 15,8 km/h (3 Bft) 95,92 %
20.01.2018 07:18 2,3 C 1,7 C 0,0 C 94 % 0 lf 1006,2 hPa 0,0 l/m 0 min 0 min 0 W/m 13,5 km/h (3 Bft) 95,74 %
20.01.2018 07:20 2,3 C 1,7 C 0,0 C 93 % 0 lf 1006,2 hPa 0,0 l/m 0 min 0 min 0 W/m 13,5 km/h (3 Bft) 97,87 %
20.01.2018 07:22 2,3 C 1,7 C 0,0 C 93 % 0 lf 1006,2 hPa 0,0 l/m 0 min 0 min 0 W/m 9,0 km/h (2 Bft) 97,22 %
20.01.2018 07:24 2,2 C 1,7 C 0,0 C 93 % 0 lf 1006,2 hPa 0,0 l/m 0 min 0 min 0 W/m 15,8 km/h (3 Bft) 96,67 %
20.01.2018 07:26 2,2 C 1,7 C 0,0 C 93 % 0 lf 1006,1 hPa 0,0 l/m 0 min 0 min 0 W/m 18,0 km/h (3 Bft) 97,92 %
20.01.2018 07:28 2,2 C 1,7 C 0,0 C 93 % 0 lf 1006,1 hPa 0,0 l/m 0 min 0 min 0 W/m 6,8 km/h (2 Bft) 97,92 %
20.01.2018 07:30 2,2 C 1,7 C 0,0 C 93 % 0 lf 1006,2 hPa 0,0 l/m 0 min 0 min 0 W/m 15,8 km/h (3 Bft) 95,74 %
20.01.2018 07:32 2,2 C 1,7 C 0,0 C 93 % 0 lf 1006,1 hPa 0,0 l/m 0 min 0 min 0 W/m 13,5 km/h (3 Bft) 97,83 %
20.01.2018 07:34 2,2 C 1,7 C 0,0 C 93 % 0 lf 1006,2 hPa 0,0 l/m 0 min 0 min 0 W/m 13,5 km/h (3 Bft) 95,74 %
20.01.2018 07:36 2,2 C 1,7 C 0,0 C 93 % 0 lf 1006,2 hPa 0,0 l/m 0 min 0 min 0 W/m 15,8 km/h (3 Bft) 97,87 %
20.01.2018 07:38 2,2 C 1,7 C 0,0 C 93 % 0 lf 1006,1 hPa 0,0 l/m 0 min 0 min 0 W/m 15,8 km/h (3 Bft) 97,62 %
20.01.2018 07:40 2,2 C 1,7 C 0,0 C 93 % 0 lf 1006,2 hPa 0,0 l/m 0 min 0 min 0 W/m 15,8 km/h (3 Bft) 97,92 %
20.01.2018 07:42 2,2 C 1,7 C 0,6 C 93 % 0 lf 1006,2 hPa 0,0 l/m 0 min 0 min 0 W/m 15,8 km/h (3 Bft) 97,92 %
20.01.2018 07:44 2,2 C 2,2 C 0,6 C 93 % 0 lf 1006,2 hPa 0,0 l/m 0 min 0 min 0 W/m 18,0 km/h (3 Bft) 97,87 %
20.01.2018 07:46 2,2 C 2,2 C 0,6 C 93 % 0 lf 1006,1 hPa 0,0 l/m 0 min 0 min 0 W/m 13,5 km/h (3 Bft) 95,83 %
20.01.2018 07:48 2,2 C 2,2 C 0,6 C 93 % 0 lf 1006,1 hPa 0,0 l/m 0 min 0 min 0 W/m 15,8 km/h (3 Bft) 97,92 %
20.01.2018 07:50 2,2 C 2,2 C 0,6 C 93 % 0 lf 1006,0 hPa 0,0 l/m 0 min 0 min 0 W/m 15,8 km/h (3 Bft) 97,87 %
20.01.2018 07:52 2,2 C 2,2 C 0,6 C 93 % 0 lf 1005,9 hPa 0,0 l/m 0 min 0 min 0 W/m 11,3 km/h (2 Bft) 97,87 %
20.01.2018 07:54 2,2 C 2,2 C 0,6 C 93 % 0 lf 1006,0 hPa 0,0 l/m 0 min 0 min 0 W/m 9,0 km/h (2 Bft) 93,62 %
20.01.2018 07:56 2,2 C 2,2 C 0,6 C 93 % 0 lf 1005,9 hPa 0,0 l/m 0 min 0 min 0 W/m 13,5 km/h (3 Bft) 91,30 %
20.01.2018 07:58 2,2 C 2,2 C 0,6 C 93 % 0 lf 1005,9 hPa 0,0 l/m 0 min 0 min 0 W/m 13,5 km/h (3 Bft) 95,74 %
20.01.2018 08:00 2,2 C 2,2 C 0,6 C 93 % 0 lf 1005,9 hPa 0,0 l/m 0 min 0 min 0 W/m 13,5 km/h (3 Bft) 97,87 %
20.01.2018 08:02 2,2 C 2,2 C 0,6 C 93 % 0 lf 1005,9 hPa 0,0 l/m 0 min 0 min 0 W/m 13,5 km/h (3 Bft) 95,74 %
20.01.2018 08:04 2,2 C 2,2 C 0,6 C 93 % 0 lf 1005,9 hPa 0,0 l/m 0 min 0 min 0 W/m 9,0 km/h (2 Bft) 90,91 %
20.01.2018 08:06 2,2 C 2,2 C 0,6 C 93 % 0 lf 1005,9 hPa 0,0 l/m 0 min 0 min 0 W/m 20,3 km/h (4 Bft) 95,74 %
20.01.2018 08:08 2,2 C 2,2 C 0,6 C 93 % 0 lf 1005,9 hPa 0,0 l/m 0 min 0 min 0 W/m 15,8 km/h (3 Bft) 93,75 %
20.01.2018 08:10 2,2 C 2,2 C 0,6 C 94 % 0 lf 1005,9 hPa 0,0 l/m 0 min 0 min 0 W/m 18,0 km/h (3 Bft) 95,83 %
20.01.2018 08:12 2,2 C 2,2 C 0,6 C 94 % 0 lf 1005,8 hPa 0,0 l/m 0 min 0 min 0 W/m 13,5 km/h (3 Bft) 95,74 %
20.01.2018 08:14 2,2 C 2,2 C 0,6 C 94 % 0 lf 1005,8 hPa 0,0 l/m 0 min 0 min 0 W/m 20,3 km/h (4 Bft) 95,74 %
20.01.2018 08:16 2,2 C 2,2 C 0,6 C 94 % 0 lf 1005,8 hPa 0,0 l/m 0 min 0 min 0 W/m 13,5 km/h (3 Bft) 93,62 %
20.01.2018 08:18 2,2 C 2,2 C 0,6 C 94 % 0 lf 1005,8 hPa 0,0 l/m 0 min 0 min 0 W/m 11,3 km/h (2 Bft) 95,74 %
20.01.2018 08:20 2,2 C 2,2 C 0,6 C 94 % 0 lf 1005,7 hPa 0,0 l/m 0 min 0 min 4 W/m 11,3 km/h (2 Bft) 93,48 %
20.01.2018 08:22 2,2 C 2,2 C 0,6 C 94 % 0 lf 1005,7 hPa 0,0 l/m 0 min 0 min 5 W/m 15,8 km/h (3 Bft) 97,87 %
20.01.2018 08:24 2,2 C 2,2 C 0,6 C 94 % 0 lf 1005,7 hPa 0,0 l/m 0 min 0 min 6 W/m 11,3 km/h (2 Bft) 97,87 %
20.01.2018 08:26 2,2 C 2,2 C 0,6 C 94 % 0 lf 1005,7 hPa 0,0 l/m 0 min 0 min 7 W/m 20,3 km/h (4 Bft) 97,62 %
20.01.2018 08:28 2,2 C 2,2 C 0,6 C 94 % 0 lf 1005,7 hPa 0,0 l/m 0 min 0 min 7 W/m 15,8 km/h (3 Bft) 93,75 %
20.01.2018 08:30 2,2 C 2,2 C 0,6 C 94 % 0 lf 1005,7 hPa 0,0 l/m 0 min 0 min 7 W/m 15,8 km/h (3 Bft) 95,74 %
20.01.2018 08:32 2,2 C 2,2 C 0,6 C 94 % 0 lf 1005,7 hPa 0,0 l/m 0 min 0 min 8 W/m 15,8 km/h (3 Bft) 98,00 %
20.01.2018 08:34 2,2 C 2,2 C 0,6 C 94 % 0 lf 1005,7 hPa 0,0 l/m 0 min 0 min 9 W/m 13,5 km/h (3 Bft) 97,87 %
20.01.2018 08:36 2,2 C 2,2 C 0,6 C 94 % 0 lf 1005,7 hPa 0,0 l/m 0 min 0 min 10 W/m 13,5 km/h (3 Bft) 97,87 %
20.01.2018 08:38 2,2 C 2,2 C 0,6 C 94 % 0 lf 1005,6 hPa 0,0 l/m 0 min 0 min 11 W/m 9,0 km/h (2 Bft) 97,87 %
20.01.2018 08:40 2,2 C 2,2 C 0,6 C 94 % 0 lf 1005,7 hPa 0,0 l/m 0 min 0 min 12 W/m 15,8 km/h (3 Bft) 100,00 %
20.01.2018 08:42 2,2 C 2,2 C 0,6 C 94 % 0 lf 1005,6 hPa 0,0 l/m 0 min 0 min 12 W/m 9,0 km/h (2 Bft) 100,00 %
20.01.2018 08:44 2,2 C 2,2 C 0,6 C 94 % 0 lf 1005,7 hPa 0,0 l/m 0 min 0 min 12 W/m 11,3 km/h (2 Bft) 95,74 %
20.01.2018 08:46 2,2 C 2,2 C 0,6 C 94 % 0 lf 1005,7 hPa 0,0 l/m 0 min 0 min 13 W/m 18,0 km/h (3 Bft) 100,00 %
20.01.2018 08:48 2,2 C 2,2 C 1,1 C 94 % 0 lf 1005,6 hPa 0,0 l/m 0 min 0 min 14 W/m 11,3 km/h (2 Bft) 100,00 %
20.01.2018 08:50 2,3 C 2,2 C 1,1 C 94 % 0 lf 1005,6 hPa 0,0 l/m 0 min 0 min 12 W/m 11,3 km/h (2 Bft) 98,31 %
20.01.2018 08:52 2,3 C 2,2 C 1,1 C 94 % 0 lf 1005,6 hPa 0,0 l/m 0 min 0 min 14 W/m 11,3 km/h (2 Bft) 95,24 %
20.01.2018 08:54 2,3 C 2,2 C 1,1 C 94 % 0 lf 1005,6 hPa 0,0 l/m 0 min 0 min 18 W/m 9,0 km/h (2 Bft) 100,00 %
20.01.2018 08:56 2,3 C 2,8 C 1,1 C 94 % 0 lf 1005,7 hPa 0,0 l/m 0 min 0 min 18 W/m 13,5 km/h (3 Bft) 95,74 %
20.01.2018 08:58 2,3 C 2,8 C 1,1 C 94 % 0 lf 1005,6 hPa 0,0 l/m 0 min 0 min 19 W/m 18,0 km/h (3 Bft) 95,83 %
20.01.2018 09:00 2,3 C 2,8 C 1,1 C 94 % 0 lf 1005,6 hPa 0,0 l/m 0 min 0 min 23 W/m 15,8 km/h (3 Bft) 97,96 %
20.01.2018 09:02 2,3 C 2,8 C 1,1 C 94 % 0 lf 1005,6 hPa 0,0 l/m 0 min 0 min 26 W/m 15,8 km/h (3 Bft) 95,74 %
20.01.2018 09:04 2,3 C 2,8 C 1,1 C 94 % 0 lf 1005,5 hPa 0,0 l/m 0 min 0 min 27 W/m 13,5 km/h (3 Bft) 95,35 %
20.01.2018 09:06 2,4 C 2,8 C 1,1 C 94 % 0 lf 1005,5 hPa 0,0 l/m 0 min 0 min 30 W/m 13,5 km/h (3 Bft) 97,92 %
20.01.2018 09:08 2,4 C 2,8 C 1,1 C 94 % 0 lf 1005,4 hPa 0,0 l/m 0 min 0 min 34 W/m 13,5 km/h (3 Bft) 95,74 %
20.01.2018 09:10 2,4 C 2,8 C 1,1 C 94 % 0 lf 1005,4 hPa 0,0 l/m 0 min 0 min 35 W/m 15,8 km/h (3 Bft) 93,75 %
20.01.2018 09:12 2,4 C 2,8 C 1,1 C 94 % 0 lf 1005,3 hPa 0,0 l/m 0 min 0 min 36 W/m 9,0 km/h (2 Bft) 91,67 %
20.01.2018 09:14 2,4 C 2,8 C 1,1 C 94 % 0 lf 1005,3 hPa 0,0 l/m 0 min 0 min 36 W/m 13,5 km/h (3 Bft) 93,62 %
20.01.2018 09:16 2,4 C 2,8 C 1,1 C 94 % 0 lf 1005,4 hPa 0,0 l/m 0 min 0 min 37 W/m 11,3 km/h (2 Bft) 95,74 %
20.01.2018 09:18 2,4 C 2,8 C 1,1 C 94 % 0 lf 1005,4 hPa 0,0 l/m 0 min 0 min 41 W/m 11,3 km/h (2 Bft) 95,74 %
20.01.2018 09:20 2,4 C 2,8 C 1,1 C 94 % 0 lf 1005,4 hPa 0,0 l/m 0 min 0 min 45 W/m 15,8 km/h (3 Bft) 93,10 %
20.01.2018 09:22 2,4 C 2,8 C 1,1 C 93 % 0 lf 1005,4 hPa 0,0 l/m 0 min 0 min 47 W/m 11,3 km/h (2 Bft) 97,37 %
20.01.2018 09:24 2,4 C 2,8 C 1,7 C 93 % 0 lf 1005,2 hPa 0,0 l/m 0 min 0 min 49 W/m 13,5 km/h (3 Bft) 93,62 %
20.01.2018 09:26 2,4 C 2,8 C 1,7 C 93 % 0 lf 1005,2 hPa 0,0 l/m 0 min 0 min 52 W/m 9,0 km/h (2 Bft) 93,62 %
20.01.2018 09:28 2,5 C 2,8 C 1,7 C 93 % 0 lf 1005,3 hPa 0,0 l/m 0 min 0 min 54 W/m 9,0 km/h (2 Bft) 93,62 %
20.01.2018 09:30 2,5 C 3,3 C 1,7 C 93 % 0 lf 1005,2 hPa 0,0 l/m 0 min 0 min 54 W/m 9,0 km/h (2 Bft) 95,65 %
20.01.2018 09:32 2,5 C 2,8 C 1,7 C 93 % 0 lf 1005,2 hPa 0,0 l/m 0 min 0 min 53 W/m 13,5 km/h (3 Bft) 95,45 %
20.01.2018 09:34 2,5 C 2,8 C 1,7 C 93 % 0 lf 1005,2 hPa 0,0 l/m 0 min 0 min 51 W/m 11,3 km/h (2 Bft) 95,83 %
20.01.2018 09:36 2,5 C 2,8 C 1,7 C 93 % 0 lf 1005,0 hPa 0,0 l/m 0 min 0 min 47 W/m 6,8 km/h (2 Bft) 95,83 %
20.01.2018 09:38 2,5 C 2,8 C 1,7 C 93 % 0 lf 1005,0 hPa 0,0 l/m 0 min 0 min 49 W/m 9,0 km/h (2 Bft) 97,92 %
20.01.2018 09:40 2,6 C 2,8 C 1,7 C 93 % 0 lf 1005,0 hPa 0,0 l/m 0 min 0 min 48 W/m 9,0 km/h (2 Bft) 97,87 %
20.01.2018 09:42 2,6 C 2,8 C 1,7 C 93 % 0 lf 1005,1 hPa 0,0 l/m 0 min 0 min 48 W/m 9,0 km/h (2 Bft) 97,83 %
20.01.2018 09:44 2,6 C 2,8 C 1,7 C 93 % 0 lf 1005,1 hPa 0,0 l/m 0 min 0 min 52 W/m 13,5 km/h (3 Bft) 97,87 %
20.01.2018 09:46 2,6 C 2,8 C 1,7 C 94 % 0 lf 1005,1 hPa 0,0 l/m 0 min 0 min 55 W/m 15,8 km/h (3 Bft) 95,74 %
20.01.2018 09:48 2,6 C 3,3 C 1,7 C 94 % 0 lf 1005,0 hPa 0,0 l/m 0 min 0 min 59 W/m 13,5 km/h (3 Bft) 95,74 %
20.01.2018 09:50 2,6 C 3,3 C 1,7 C 94 % 0 lf 1004,9 hPa 0,0 l/m 0 min 0 min 65 W/m 15,8 km/h (3 Bft) 97,87 %
20.01.2018 09:52 2,6 C 3,3 C 1,7 C 93 % 0 lf 1004,9 hPa 0,0 l/m 0 min 0 min 73 W/m 11,3 km/h (2 Bft) 95,24 %
20.01.2018 09:54 2,6 C 3,3 C 1,7 C 93 % 0 lf 1004,9 hPa 0,0 l/m 0 min 0 min 79 W/m 15,8 km/h (3 Bft) 91,49 %
20.01.2018 09:56 2,6 C 3,3 C 2,2 C 93 % 0 lf 1004,9 hPa 0,0 l/m 0 min 0 min 81 W/m 13,5 km/h (3 Bft) 97,92 %
20.01.2018 09:58 2,7 C 3,3 C 2,2 C 93 % 0 lf 1004,9 hPa 0,0 l/m 0 min 0 min 78 W/m 18,0 km/h (3 Bft) 97,92 %
20.01.2018 10:00 2,7 C 3,3 C 2,2 C 93 % 0 lf 1004,9 hPa 0,0 l/m 0 min 0 min 77 W/m 13,5 km/h (3 Bft) 97,87 %
20.01.2018 10:02 2,7 C 3,3 C 2,2 C 93 % 0 lf 1004,8 hPa 0,0 l/m 0 min 0 min 77 W/m 13,5 km/h (3 Bft) 93,62 %
20.01.2018 10:04 2,7 C 3,3 C 2,2 C 93 % 0 lf 1004,8 hPa 0,0 l/m 0 min 0 min 79 W/m 18,0 km/h (3 Bft) 97,87 %
20.01.2018 10:06 2,7 C 3,3 C 2,2 C 93 % 0 lf 1004,8 hPa 0,0 l/m 0 min 0 min 81 W/m 18,0 km/h (3 Bft) 100,00 %
20.01.2018 10:08 2,7 C 3,3 C 2,2 C 93 % 0 lf 1004,8 hPa 0,0 l/m 0 min 0 min 83 W/m 13,5 km/h (3 Bft) 97,92 %
20.01.2018 10:10 2,8 C 3,3 C 2,2 C 93 % 0 lf 1004,8 hPa 0,0 l/m 0 min 0 min 82 W/m 13,5 km/h (3 Bft) 95,83 %
20.01.2018 10:12 2,8 C 3,3 C 2,2 C 93 % 0 lf 1004,7 hPa 0,0 l/m 0 min 0 min 77 W/m 15,8 km/h (3 Bft) 97,92 %
20.01.2018 10:14 2,8 C 3,3 C 2,2 C 93 % 0 lf 1004,7 hPa 0,0 l/m 0 min 0 min 74 W/m 13,5 km/h (3 Bft) 95,83 %
20.01.2018 10:16 2,8 C 3,3 C 2,2 C 93 % 0 lf 1004,7 hPa 0,0 l/m 0 min 0 min 72 W/m 9,0 km/h (2 Bft) 95,74 %
20.01.2018 10:18 2,8 C 3,3 C 2,2 C 93 % 0 lf 1004,7 hPa 0,0 l/m 0 min 0 min 71 W/m 15,8 km/h (3 Bft) 97,87 %
20.01.2018 10:20 2,8 C 3,3 C 2,2 C 93 % 0 lf 1004,6 hPa 0,0 l/m 0 min 0 min 77 W/m 15,8 km/h (3 Bft) 96,67 %
20.01.2018 10:22 2,8 C 3,3 C 2,2 C 93 % 0 lf 1004,6 hPa 0,0 l/m 0 min 0 min 74 W/m 13,5 km/h (3 Bft) 88,57 %
20.01.2018 10:24 2,8 C 3,3 C 2,2 C 93 % 0 lf 1004,7 hPa 0,0 l/m 0 min 0 min 72 W/m 11,3 km/h (2 Bft) 97,87 %
20.01.2018 10:26 2,8 C 3,3 C 2,2 C 93 % 0 lf 1004,7 hPa 0,0 l/m 0 min 0 min 77 W/m 11,3 km/h (2 Bft) 97,87 %
20.01.2018 10:28 2,8 C 3,3 C 2,2 C 93 % 0 lf 1004,7 hPa 0,0 l/m 0 min 0 min 84 W/m 20,3 km/h (4 Bft) 97,87 %
20.01.2018 10:30 2,8 C 3,3 C 2,2 C 93 % 0 lf 1004,7 hPa 0,0 l/m 0 min 0 min 96 W/m 15,8 km/h (3 Bft) 97,83 %
20.01.2018 10:32 2,9 C 3,9 C 2,2 C 93 % 0 lf 1004,7 hPa 0,0 l/m 0 min 0 min 103 W/m 9,0 km/h (2 Bft) 97,67 %
20.01.2018 10:34 2,9 C 3,9 C 2,2 C 93 % 0 lf 1004,6 hPa 0,0 l/m 0 min 0 min 103 W/m 15,8 km/h (3 Bft) 100,00 %
20.01.2018 10:36 2,9 C 3,9 C 2,8 C 93 % 0 lf 1004,6 hPa 0,0 l/m 0 min 0 min 98 W/m 9,0 km/h (2 Bft) 95,83 %
20.01.2018 10:38 2,9 C 3,9 C 2,8 C 92 % 0 lf 1004,5 hPa 0,0 l/m 0 min 0 min 104 W/m 9,0 km/h (2 Bft) 100,00 %
20.01.2018 10:40 2,9 C 3,3 C 2,8 C 92 % 0 lf 1004,4 hPa 0,0 l/m 0 min 0 min 112 W/m 9,0 km/h (2 Bft) 97,92 %
20.01.2018 10:42 2,9 C 3,9 C 2,8 C 93 % 0 lf 1004,4 hPa 0,0 l/m 0 min 0 min 117 W/m 9,0 km/h (2 Bft) 100,00 %
20.01.2018 10:44 2,9 C 3,9 C 2,8 C 93 % 0 lf 1004,3 hPa 0,0 l/m 0 min 0 min 122 W/m 11,3 km/h (2 Bft) 100,00 %
20.01.2018 10:46 2,9 C 3,9 C 2,8 C 92 % 0 lf 1004,2 hPa 0,0 l/m 0 min 0 min 129 W/m 9,0 km/h (2 Bft) 100,00 %
20.01.2018 10:48 2,9 C 3,9 C 2,8 C 92 % 0 lf 1004,2 hPa 0,0 l/m 0 min 0 min 132 W/m 9,0 km/h (2 Bft) 100,00 %
20.01.2018 10:50 2,9 C 3,9 C 2,8 C 92 % 0 lf 1004,2 hPa 0,0 l/m 0 min 0 min 127 W/m 9,0 km/h (2 Bft) 98,28 %
20.01.2018 10:52 3,0 C 3,9 C 2,8 C 92 % 0 lf 1004,2 hPa 0,0 l/m 0 min 0 min 125 W/m 9,0 km/h (2 Bft) 97,37 %
20.01.2018 10:54 3,0 C 4,4 C 3,3 C 92 % 0 lf 1004,2 hPa 0,0 l/m 0 min 0 min 125 W/m 6,8 km/h (2 Bft) 97,87 %
20.01.2018 10:56 3,0 C 3,9 C 2,8 C 92 % 0 lf 1004,2 hPa 0,0 l/m 0 min 0 min 124 W/m 6,8 km/h (2 Bft) 97,87 %
20.01.2018 10:58 3,0 C 3,9 C 3,3 C 92 % 0 lf 1004,2 hPa 0,0 l/m 0 min 0 min 114 W/m 9,0 km/h (2 Bft) 100,00 %
20.01.2018 11:00 3,1 C 3,9 C 3,3 C 92 % 0 lf 1004,1 hPa 0,0 l/m 0 min 0 min 101 W/m 13,5 km/h (3 Bft) 100,00 %
20.01.2018 11:02 3,1 C 3,9 C 3,3 C 92 % 0 lf 1004,1 hPa 0,0 l/m 0 min 0 min 92 W/m 11,3 km/h (2 Bft) 97,83 %
20.01.2018 11:04 3,1 C 3,9 C 2,8 C 92 % 0 lf 1004,0 hPa 0,0 l/m 0 min 0 min 87 W/m 11,3 km/h (2 Bft) 100,00 %
20.01.2018 11:06 3,1 C 3,9 C 2,8 C 92 % 0 lf 1004,0 hPa 0,0 l/m 0 min 0 min 83 W/m 9,0 km/h (2 Bft) 100,00 %
20.01.2018 11:08 3,1 C 3,9 C 2,8 C 92 % 0 lf 1003,9 hPa 0,0 l/m 0 min 0 min 81 W/m 13,5 km/h (3 Bft) 97,87 %
20.01.2018 11:10 3,1 C 3,3 C 2,8 C 92 % 0 lf 1003,9 hPa 0,0 l/m 0 min 0 min 81 W/m 11,3 km/h (2 Bft) 100,00 %
20.01.2018 11:12 3,1 C 3,9 C 2,8 C 92 % 0 lf 1004,0 hPa 0,0 l/m 0 min 0 min 84 W/m 9,0 km/h (2 Bft) 97,87 %
20.01.2018 11:14 3,1 C 3,9 C 2,8 C 92 % 0 lf 1004,0 hPa 0,0 l/m 0 min 0 min 84 W/m 13,5 km/h (3 Bft) 97,87 %
20.01.2018 11:16 3,1 C 3,9 C 2,8 C 92 % 0 lf 1003,9 hPa 0,0 l/m 0 min 0 min 83 W/m 9,0 km/h (2 Bft) 95,65 %
20.01.2018 11:18 3,1 C 3,9 C 2,8 C 92 % 0 lf 1003,9 hPa 0,0 l/m 0 min 0 min 84 W/m 9,0 km/h (2 Bft) 97,87 %
20.01.2018 11:20 3,1 C 3,9 C 2,8 C 92 % 0 lf 1003,9 hPa 0,0 l/m 0 min 0 min 89 W/m 9,0 km/h (2 Bft) 91,49 %
20.01.2018 11:22 3,2 C 3,9 C 2,8 C 92 % 0 lf 1003,9 hPa 0,0 l/m 0 min 0 min 96 W/m 9,0 km/h (2 Bft) 100,00 %
20.01.2018 11:24 3,2 C 3,9 C 2,8 C 92 % 0 lf 1003,8 hPa 0,0 l/m 0 min 0 min 102 W/m 11,3 km/h (2 Bft) 97,92 %
20.01.2018 11:26 3,2 C 3,9 C 2,8 C 92 % 0 lf 1003,8 hPa 0,0 l/m 0 min 0 min 105 W/m 13,5 km/h (3 Bft) 95,74 %
20.01.2018 11:28 3,2 C 3,9 C 3,3 C 92 % 0 lf 1003,8 hPa 0,0 l/m 0 min 0 min 110 W/m 13,5 km/h (3 Bft) 91,67 %
20.01.2018 11:30 3,2 C 3,9 C 3,3 C 92 % 0 lf 1003,7 hPa 0,0 l/m 0 min 0 min 113 W/m 11,3 km/h (2 Bft) 95,83 %
20.01.2018 11:32 3,2 C 3,9 C 3,3 C 92 % 0 lf 1003,7 hPa 0,0 l/m 0 min 0 min 111 W/m 9,0 km/h (2 Bft) 95,74 %
20.01.2018 11:34 3,2 C 3,9 C 3,3 C 92 % 0 lf 1003,6 hPa 0,0 l/m 0 min 0 min 108 W/m 13,5 km/h (3 Bft) 97,87 %
20.01.2018 11:36 3,2 C 3,9 C 3,3 C 92 % 0 lf 1003,6 hPa 0,0 l/m 0 min 0 min 104 W/m 11,3 km/h (2 Bft) 97,92 %
20.01.2018 11:38 3,2 C 3,9 C 3,3 C 92 % 0 lf 1003,6 hPa 0,0 l/m 0 min 0 min 100 W/m 11,3 km/h (2 Bft) 91,30 %
20.01.2018 11:40 3,3 C 3,9 C 3,3 C 92 % 0 lf 1003,5 hPa 0,0 l/m 0 min 0 min 98 W/m 9,0 km/h (2 Bft) 93,62 %
20.01.2018 11:42 3,3 C 4,4 C 3,3 C 92 % 0 lf 1003,5 hPa 0,0 l/m 0 min 0 min 94 W/m 11,3 km/h (2 Bft) 95,35 %
20.01.2018 11:44 3,3 C 3,9 C 3,3 C 92 % 0 lf 1003,5 hPa 0,0 l/m 0 min 0 min 94 W/m 9,0 km/h (2 Bft) 93,62 %
20.01.2018 11:46 3,3 C 3,9 C 3,3 C 92 % 0 lf 1003,5 hPa 0,0 l/m 0 min 0 min 97 W/m 11,3 km/h (2 Bft) 95,83 %
20.01.2018 11:48 3,4 C 3,9 C 3,3 C 92 % 0 lf 1003,4 hPa 0,0 l/m 0 min 0 min 95 W/m 11,3 km/h (2 Bft) 97,83 %
20.01.2018 11:50 3,4 C 4,4 C 3,9 C 92 % 0 lf 1003,4 hPa 0,0 l/m 0 min 0 min 90 W/m 15,8 km/h (3 Bft) 91,49 %
20.01.2018 11:52 3,4 C 3,9 C 3,3 C 92 % 0 lf 1003,4 hPa 0,0 l/m 0 min 0 min 85 W/m 15,8 km/h (3 Bft) 93,88 %
20.01.2018 11:54 3,4 C 3,9 C 3,3 C 92 % 0 lf 1003,3 hPa 0,0 l/m 0 min 2 min 82 W/m 15,8 km/h (3 Bft) 97,92 %
20.01.2018 11:56 3,4 C 3,9 C 3,3 C 92 % 0 lf 1003,3 hPa 0,0 l/m 0 min 2 min 80 W/m 11,3 km/h (2 Bft) 89,36 %
20.01.2018 11:58 3,5 C 3,9 C 3,3 C 92 % 0 lf 1003,3 hPa 0,0 l/m 0 min 0 min 72 W/m 18,0 km/h (3 Bft) 93,62 %
20.01.2018 12:00 3,5 C 3,9 C 3,3 C 92 % 0 lf 1003,2 hPa 0,0 l/m 0 min 2 min 65 W/m 13,5 km/h (3 Bft) 89,36 %
20.01.2018 12:02 3,5 C 3,9 C 3,3 C 92 % 0 lf 1003,1 hPa 0,0 l/m 0 min 2 min 63 W/m 9,0 km/h (2 Bft) 90,48 %
20.01.2018 12:04 3,5 C 3,3 C 2,8 C 92 % 0 lf 1003,1 hPa 0,0 l/m 0 min 2 min 61 W/m 11,3 km/h (2 Bft) 90,00 %
20.01.2018 12:06 3,5 C 3,3 C 2,8 C 91 % 0 lf 1003,1 hPa 0,0 l/m 0 min 2 min 57 W/m 11,3 km/h (2 Bft) 89,58 %
20.01.2018 12:08 3,5 C 3,3 C 2,8 C 91 % 0 lf 1003,1 hPa 0,0 l/m 0 min 2 min 59 W/m 11,3 km/h (2 Bft) 89,58 %
20.01.2018 12:10 3,5 C 3,3 C 2,8 C 91 % 0 lf 1003,1 hPa 0,0 l/m 0 min 2 min 63 W/m 13,5 km/h (3 Bft) 89,36 %
20.01.2018 12:12 3,5 C 3,3 C 2,8 C 91 % 0 lf 1003,1 hPa 0,0 l/m 0 min 2 min 63 W/m 13,5 km/h (3 Bft) 93,48 %
20.01.2018 12:14 3,6 C 3,3 C 2,2 C 91 % 0 lf 1003,0 hPa 0,0 l/m 0 min 2 min 64 W/m 9,0 km/h (2 Bft) 93,62 %
20.01.2018 12:16 3,6 C 3,3 C 2,2 C 91 % 0 lf 1003,0 hPa 0,0 l/m 0 min 2 min 72 W/m 13,5 km/h (3 Bft) 93,62 %
20.01.2018 12:18 3,6 C 3,3 C 2,8 C 91 % 0 lf 1002,9 hPa 0,0 l/m 0 min 2 min 79 W/m 13,5 km/h (3 Bft) 89,36 %
20.01.2018 12:20 3,5 C 3,3 C 2,8 C 91 % 0 lf 1002,8 hPa 0,0 l/m 0 min 0 min 82 W/m 11,3 km/h (2 Bft) 89,36 %
20.01.2018 12:22 3,6 C 3,3 C 2,8 C 91 % 0 lf 1002,8 hPa 0,0 l/m 0 min 2 min 74 W/m 11,3 km/h (2 Bft) 94,00 %
20.01.2018 12:24 3,5 C 3,3 C 2,8 C 91 % 0 lf 1002,7 hPa 0,0 l/m 0 min 2 min 67 W/m 13,5 km/h (3 Bft) 93,48 %
20.01.2018 12:26 3,6 C 3,3 C 2,2 C 92 % 0 lf 1002,7 hPa 0,0 l/m 0 min 2 min 62 W/m 11,3 km/h (2 Bft) 95,74 %
20.01.2018 12:28 3,6 C 3,3 C 2,2 C 92 % 0 lf 1002,7 hPa 0,0 l/m 0 min 2 min 55 W/m 20,3 km/h (4 Bft) 97,62 %
20.01.2018 12:30 3,5 C 2,8 C 2,2 C 92 % 1 lf 1002,7 hPa 0,0 l/m 0 min 2 min 48 W/m 22,5 km/h (4 Bft) 95,83 %
20.01.2018 12:32 3,6 C 2,8 C 2,2 C 92 % 2 lf 1002,7 hPa 0,0 l/m 0 min 2 min 46 W/m 15,8 km/h (3 Bft) 96,00 %
20.01.2018 12:34 3,6 C 2,8 C 2,2 C 92 % 3 lf 1002,5 hPa 0,0 l/m 0 min 2 min 46 W/m 11,3 km/h (2 Bft) 91,30 %
20.01.2018 12:36 3,5 C 2,8 C 2,2 C 92 % 3 lf 1002,5 hPa 0,0 l/m 0 min 2 min 47 W/m 9,0 km/h (2 Bft) 93,75 %
20.01.2018 12:38 3,6 C 2,8 C 2,2 C 92 % 3 lf 1002,4 hPa 0,0 l/m 0 min 2 min 46 W/m 11,3 km/h (2 Bft) 95,74 %
20.01.2018 12:40 3,6 C 2,8 C 2,2 C 92 % 4 lf 1002,4 hPa 0,0 l/m 0 min 2 min 47 W/m 6,8 km/h (2 Bft) 95,74 %
20.01.2018 12:42 3,6 C 2,8 C 2,2 C 92 % 6 lf 1002,4 hPa 0,0 l/m 0 min 2 min 47 W/m 9,0 km/h (2 Bft) 95,74 %
20.01.2018 12:44 3,6 C 2,8 C 2,2 C 92 % 7 lf 1002,4 hPa 0,0 l/m 0 min 2 min 45 W/m 11,3 km/h (2 Bft) 100,00 %
20.01.2018 12:46 3,6 C 2,8 C 2,2 C 92 % 8 lf 1002,3 hPa 0,0 l/m 0 min 2 min 43 W/m 9,0 km/h (2 Bft) 95,65 %
20.01.2018 12:48 3,6 C 2,8 C 2,2 C 92 % 11 lf 1002,3 hPa 0,0 l/m 0 min 2 min 41 W/m 9,0 km/h (2 Bft) 100,00 %
20.01.2018 12:50 3,6 C 2,8 C 2,2 C 92 % 12 lf 1002,1 hPa 0,0 l/m 0 min 2 min 41 W/m 9,0 km/h (2 Bft) 100,00 %
20.01.2018 12:52 3,6 C 2,8 C 2,2 C 92 % 11 lf 1002,1 hPa 0,2 l/m 0 min 2 min 40 W/m 9,0 km/h (2 Bft) 100,00 %
20.01.2018 12:54 3,6 C 2,8 C 2,2 C 92 % 11 lf 1002,0 hPa 0,0 l/m 0 min 2 min 42 W/m 9,0 km/h (2 Bft) 97,87 %
20.01.2018 12:56 3,6 C 2,8 C 2,2 C 92 % 12 lf 1002,0 hPa 0,0 l/m 0 min 2 min 44 W/m 9,0 km/h (2 Bft) 100,00 %
20.01.2018 12:58 3,6 C 2,8 C 2,2 C 92 % 11 lf 1001,9 hPa 0,0 l/m 0 min 2 min 47 W/m 9,0 km/h (2 Bft) 97,87 %
20.01.2018 13:00 3,5 C 2,8 C 2,2 C 92 % 12 lf 1001,9 hPa 0,0 l/m 0 min 2 min 49 W/m 6,8 km/h (2 Bft) 100,00 %
20.01.2018 13:02 3,5 C 2,8 C 2,2 C 92 % 11 lf 1001,9 hPa 0,0 l/m 0 min 2 min 47 W/m 9,0 km/h (2 Bft) 97,87 %
20.01.2018 13:04 3,5 C 2,8 C 2,2 C 92 % 11 lf 1001,9 hPa 0,0 l/m 0 min 2 min 47 W/m 6,8 km/h (2 Bft) 97,87 %
20.01.2018 13:06 3,5 C 2,8 C 2,2 C 92 % 12 lf 1001,8 hPa 0,0 l/m 0 min 2 min 49 W/m 9,0 km/h (2 Bft) 100,00 %
20.01.2018 13:08 3,5 C 2,8 C 2,2 C 92 % 12 lf 1001,7 hPa 0,0 l/m 0 min 2 min 50 W/m 9,0 km/h (2 Bft) 97,92 %
20.01.2018 13:10 3,5 C 2,8 C 2,2 C 93 % 12 lf 1001,5 hPa 0,0 l/m 0 min 2 min 53 W/m 11,3 km/h (2 Bft) 100,00 %
20.01.2018 13:12 3,5 C 2,8 C 2,2 C 93 % 12 lf 1001,5 hPa 0,0 l/m 0 min 2 min 52 W/m 9,0 km/h (2 Bft) 100,00 %
20.01.2018 13:14 3,5 C 2,8 C 2,2 C 93 % 13 lf 1001,5 hPa 0,0 l/m 0 min 2 min 53 W/m 9,0 km/h (2 Bft) 100,00 %
20.01.2018 13:16 3,5 C 2,8 C 2,2 C 93 % 12 lf 1001,4 hPa 0,2 l/m 0 min 2 min 51 W/m 9,0 km/h (2 Bft) 97,92 %
20.01.2018 13:18 3,5 C 2,8 C 2,2 C 93 % 13 lf 1001,4 hPa 0,0 l/m 0 min 2 min 47 W/m 11,3 km/h (2 Bft) 100,00 %
20.01.2018 13:20 3,5 C 2,8 C 2,2 C 93 % 13 lf 1001,3 hPa 0,0 l/m 0 min 2 min 45 W/m 11,3 km/h (2 Bft) 100,00 %
20.01.2018 13:22 3,5 C 2,8 C 2,2 C 93 % 13 lf 1001,3 hPa 0,0 l/m 0 min 2 min 40 W/m 9,0 km/h (2 Bft) 97,30 %
20.01.2018 13:24 3,5 C 2,8 C 2,2 C 93 % 13 lf 1001,3 hPa 0,0 l/m 0 min 2 min 38 W/m 6,8 km/h (2 Bft) 97,92 %
20.01.2018 13:26 3,5 C 2,8 C 2,2 C 93 % 13 lf 1001,3 hPa 0,0 l/m 0 min 2 min 37 W/m 6,8 km/h (2 Bft) 97,87 %
20.01.2018 13:28 3,4 C 2,8 C 2,2 C 93 % 13 lf 1001,2 hPa 0,0 l/m 0 min 2 min 36 W/m 9,0 km/h (2 Bft) 100,00 %
20.01.2018 13:30 3,5 C 2,8 C 2,2 C 93 % 13 lf 1001,2 hPa 0,0 l/m 0 min 2 min 37 W/m 11,3 km/h (2 Bft) 100,00 %
20.01.2018 13:32 3,5 C 2,8 C 2,2 C 93 % 13 lf 1001,2 hPa 0,0 l/m 0 min 2 min 37 W/m 13,5 km/h (3 Bft) 100,00 %
20.01.2018 13:34 3,5 C 2,8 C 2,2 C 93 % 14 lf 1001,1 hPa 0,0 l/m 0 min 2 min 38 W/m 11,3 km/h (2 Bft) 97,62 %
20.01.2018 13:36 3,4 C 2,8 C 2,2 C 93 % 14 lf 1001,0 hPa 0,0 l/m 0 min 2 min 39 W/m 9,0 km/h (2 Bft) 100,00 %
20.01.2018 13:38 3,4 C 2,8 C 2,2 C 93 % 14 lf 1001,0 hPa 0,0 l/m 0 min 2 min 39 W/m 6,8 km/h (2 Bft) 97,92 %
20.01.2018 13:40 3,4 C 2,8 C 2,2 C 93 % 14 lf 1000,9 hPa 0,0 l/m 0 min 2 min 40 W/m 11,3 km/h (2 Bft) 100,00 %
20.01.2018 13:42 3,4 C 2,8 C 2,2 C 93 % 14 lf 1000,9 hPa 0,0 l/m 0 min 2 min 42 W/m 11,3 km/h (2 Bft) 97,92 %
20.01.2018 13:44 3,4 C 2,8 C 2,2 C 93 % 14 lf 1000,9 hPa 0,2 l/m 0 min 2 min 42 W/m 13,5 km/h (3 Bft) 100,00 %
20.01.2018 13:46 3,4 C 2,8 C 2,2 C 94 % 14 lf 1000,8 hPa 0,0 l/m 0 min 2 min 41 W/m 13,5 km/h (3 Bft) 97,83 %
20.01.2018 13:48 3,4 C 2,8 C 2,2 C 94 % 14 lf 1000,7 hPa 0,0 l/m 0 min 2 min 42 W/m 11,3 km/h (2 Bft) 95,83 %
20.01.2018 13:50 3,4 C 2,8 C 2,2 C 94 % 14 lf 1000,7 hPa 0,0 l/m 0 min 2 min 40 W/m 11,3 km/h (2 Bft) 98,33 %
20.01.2018 13:52 3,4 C 2,8 C 2,2 C 94 % 14 lf 1000,6 hPa 0,0 l/m 0 min 2 min 40 W/m 13,5 km/h (3 Bft) 97,14 %
20.01.2018 13:54 3,4 C 2,8 C 2,2 C 94 % 14 lf 1000,6 hPa 0,0 l/m 0 min 2 min 39 W/m 13,5 km/h (3 Bft) 100,00 %
20.01.2018 13:56 3,4 C 2,8 C 2,2 C 94 % 14 lf 1000,5 hPa 0,0 l/m 0 min 2 min 39 W/m 15,8 km/h (3 Bft) 97,87 %
20.01.2018 13:58 3,4 C 2,8 C 2,2 C 94 % 14 lf 1000,5 hPa 0,0 l/m 0 min 2 min 39 W/m 11,3 km/h (2 Bft) 97,87 %
20.01.2018 14:00 3,4 C 2,8 C 2,2 C 94 % 14 lf 1000,4 hPa 0,0 l/m 0 min 2 min 37 W/m 9,0 km/h (2 Bft) 97,62 %
20.01.2018 14:02 3,4 C 2,8 C 2,2 C 94 % 14 lf 1000,3 hPa 0,2 l/m 0 min 2 min 40 W/m 15,8 km/h (3 Bft) 98,00 %
20.01.2018 14:04 3,4 C 2,8 C 2,2 C 94 % 14 lf 1000,2 hPa 0,0 l/m 0 min 2 min 42 W/m 11,3 km/h (2 Bft) 97,92 %
20.01.2018 14:06 3,3 C 2,8 C 2,2 C 94 % 14 lf 1000,2 hPa 0,0 l/m 0 min 2 min 42 W/m 9,0 km/h (2 Bft) 97,87 %
20.01.2018 14:08 3,3 C 2,8 C 2,2 C 94 % 14 lf 1000,2 hPa 0,0 l/m 0 min 2 min 41 W/m 9,0 km/h (2 Bft) 97,87 %
20.01.2018 14:10 3,3 C 2,8 C 2,2 C 94 % 14 lf 1000,1 hPa 0,0 l/m 0 min 2 min 39 W/m 15,8 km/h (3 Bft) 97,87 %
20.01.2018 14:12 3,3 C 2,8 C 2,2 C 94 % 14 lf 1000,1 hPa 0,0 l/m 0 min 2 min 40 W/m 15,8 km/h (3 Bft) 97,83 %
20.01.2018 14:14 3,3 C 2,8 C 2,2 C 94 % 14 lf 1000,1 hPa 0,0 l/m 0 min 2 min 37 W/m 18,0 km/h (3 Bft) 97,62 %
20.01.2018 14:16 3,3 C 2,8 C 2,2 C 94 % 14 lf 1000,1 hPa 0,0 l/m 0 min 2 min 36 W/m 15,8 km/h (3 Bft) 95,83 %
20.01.2018 14:18 3,3 C 2,8 C 2,2 C 94 % 14 lf 1000,0 hPa 0,0 l/m 0 min 2 min 36 W/m 15,8 km/h (3 Bft) 97,92 %
20.01.2018 14:20 3,3 C 2,8 C 2,2 C 94 % 14 lf 1000,0 hPa 0,0 l/m 0 min 2 min 34 W/m 15,8 km/h (3 Bft) 95,08 %
20.01.2018 14:22 3,3 C 2,8 C 2,2 C 94 % 14 lf 1000,0 hPa 0,2 l/m 0 min 2 min 37 W/m 18,0 km/h (3 Bft) 97,14 %
20.01.2018 14:24 3,2 C 2,8 C 2,2 C 95 % 14 lf 999,9 hPa 0,0 l/m 0 min 2 min 39 W/m 11,3 km/h (2 Bft) 95,74 %
20.01.2018 14:26 3,2 C 2,8 C 2,2 C 95 % 14 lf 999,9 hPa 0,0 l/m 0 min 2 min 40 W/m 18,0 km/h (3 Bft) 95,74 %
20.01.2018 14:28 3,2 C 2,8 C 2,2 C 95 % 14 lf 999,9 hPa 0,0 l/m 0 min 2 min 42 W/m 13,5 km/h (3 Bft) 95,74 %
20.01.2018 14:30 3,2 C 2,8 C 2,2 C 95 % 15 lf 999,9 hPa 0,0 l/m 0 min 2 min 44 W/m 22,5 km/h (4 Bft) 97,87 %
20.01.2018 14:32 3,2 C 2,8 C 2,2 C 95 % 14 lf 999,9 hPa 0,0 l/m 0 min 2 min 50 W/m 18,0 km/h (3 Bft) 93,62 %
20.01.2018 14:34 3,2 C 2,8 C 2,2 C 94 % 15 lf 999,9 hPa 0,0 l/m 0 min 2 min 60 W/m 15,8 km/h (3 Bft) 95,74 %
20.01.2018 14:36 3,1 C 2,8 C 2,2 C 95 % 14 lf 999,7 hPa 0,2 l/m 0 min 2 min 60 W/m 18,0 km/h (3 Bft) 95,65 %
20.01.2018 14:38 3,1 C 2,8 C 2,2 C 95 % 14 lf 999,8 hPa 0,0 l/m 0 min 2 min 55 W/m 15,8 km/h (3 Bft) 97,87 %
20.01.2018 14:40 3,1 C 2,8 C 2,2 C 95 % 14 lf 999,7 hPa 0,0 l/m 0 min 2 min 52 W/m 11,3 km/h (2 Bft) 97,87 %
20.01.2018 14:42 3,1 C 2,8 C 2,2 C 95 % 15 lf 999,7 hPa 0,0 l/m 0 min 2 min 46 W/m 15,8 km/h (3 Bft) 97,87 %
20.01.2018 14:44 3,1 C 2,8 C 2,2 C 95 % 15 lf 999,6 hPa 0,0 l/m 0 min 2 min 42 W/m 13,5 km/h (3 Bft) 95,74 %
20.01.2018 14:46 3,1 C 2,8 C 1,7 C 95 % 15 lf 999,6 hPa 0,0 l/m 0 min 2 min 41 W/m 13,5 km/h (3 Bft) 97,83 %
20.01.2018 14:48 3,0 C 2,8 C 2,2 C 95 % 15 lf 999,6 hPa 0,0 l/m 0 min 2 min 42 W/m 13,5 km/h (3 Bft) 97,87 %
20.01.2018 14:50 3,0 C 2,2 C 1,7 C 95 % 15 lf 999,6 hPa 0,0 l/m 0 min 2 min 39 W/m 18,0 km/h (3 Bft) 94,92 %
20.01.2018 14:52 3,0 C 2,2 C 1,7 C 95 % 15 lf 999,6 hPa 0,0 l/m 0 min 2 min 43 W/m 15,8 km/h (3 Bft) 97,14 %
20.01.2018 14:54 3,0 C 2,2 C 1,7 C 95 % 15 lf 999,5 hPa 0,2 l/m 0 min 2 min 46 W/m 18,0 km/h (3 Bft) 93,62 %
20.01.2018 14:56 2,9 C 2,2 C 1,7 C 95 % 15 lf 999,6 hPa 0,0 l/m 0 min 2 min 47 W/m 13,5 km/h (3 Bft) 93,62 %
20.01.2018 14:58 2,9 C 2,2 C 1,7 C 95 % 15 lf 999,5 hPa 0,0 l/m 0 min 2 min 47 W/m 15,8 km/h (3 Bft) 89,13 %
20.01.2018 15:00 2,9 C 2,2 C 1,7 C 95 % 15 lf 999,5 hPa 0,0 l/m 0 min 2 min 49 W/m 15,8 km/h (3 Bft) 93,62 %
20.01.2018 15:02 2,9 C 2,2 C 1,7 C 95 % 15 lf 999,4 hPa 0,0 l/m 0 min 2 min 50 W/m 13,5 km/h (3 Bft) 95,74 %
20.01.2018 15:04 2,9 C 2,2 C 1,7 C 95 % 15 lf 999,4 hPa 0,0 l/m 0 min 2 min 51 W/m 15,8 km/h (3 Bft) 97,87 %
20.01.2018 15:06 2,8 C 2,2 C 1,7 C 95 % 15 lf 999,3 hPa 0,0 l/m 0 min 2 min 53 W/m 11,3 km/h (2 Bft) 97,87 %
20.01.2018 15:08 2,8 C 2,2 C 1,7 C 95 % 15 lf 999,4 hPa 0,2 l/m 0 min 2 min 54 W/m 15,8 km/h (3 Bft) 93,62 %
20.01.2018 15:10 2,8 C 2,2 C 1,7 C 95 % 15 lf 999,4 hPa 0,0 l/m 0 min 2 min 59 W/m 11,3 km/h (2 Bft) 93,48 %
20.01.2018 15:12 2,8 C 2,2 C 1,7 C 95 % 15 lf 999,3 hPa 0,0 l/m 0 min 2 min 61 W/m 13,5 km/h (3 Bft) 93,62 %
20.01.2018 15:14 2,8 C 2,2 C 1,7 C 95 % 15 lf 999,3 hPa 0,0 l/m 0 min 2 min 60 W/m 13,5 km/h (3 Bft) 93,62 %
20.01.2018 15:16 2,8 C 2,2 C 1,7 C 95 % 15 lf 999,3 hPa 0,0 l/m 0 min 2 min 57 W/m 13,5 km/h (3 Bft) 95,74 %
20.01.2018 15:18 2,7 C 2,2 C 1,7 C 95 % 15 lf 999,3 hPa 0,0 l/m 0 min 2 min 51 W/m 9,0 km/h (2 Bft) 95,74 %
20.01.2018 15:20 2,8 C 2,2 C 1,7 C 95 % 15 lf 999,3 hPa 0,0 l/m 0 min 2 min 47 W/m 11,3 km/h (2 Bft) 94,83 %
20.01.2018 15:22 2,8 C 2,2 C 1,7 C 95 % 15 lf 999,3 hPa 0,0 l/m 0 min 2 min 45 W/m 13,5 km/h (3 Bft) 91,89 %
20.01.2018 15:24 2,7 C 2,2 C 1,7 C 95 % 15 lf 999,2 hPa 0,0 l/m 0 min 2 min 44 W/m 13,5 km/h (3 Bft) 93,62 %
20.01.2018 15:26 2,8 C 2,2 C 1,7 C 95 % 15 lf 999,2 hPa 0,0 l/m 0 min 2 min 42 W/m 15,8 km/h (3 Bft) 93,62 %
20.01.2018 15:28 2,7 C 2,2 C 1,7 C 95 % 15 lf 999,2 hPa 0,0 l/m 0 min 2 min 40 W/m 11,3 km/h (2 Bft) 95,74 %
20.01.2018 15:30 2,7 C 2,2 C 1,7 C 95 % 15 lf 999,2 hPa 0,2 l/m 0 min 2 min 39 W/m 15,8 km/h (3 Bft) 93,48 %
20.01.2018 15:32 2,7 C 2,2 C 1,7 C 95 % 15 lf 999,2 hPa 0,0 l/m 0 min 2 min 38 W/m 11,3 km/h (2 Bft) 93,62 %
20.01.2018 15:34 2,7 C 2,2 C 1,7 C 95 % 15 lf 999,2 hPa 0,0 l/m 0 min 2 min 34 W/m 13,5 km/h (3 Bft) 93,62 %
20.01.2018 15:36 2,7 C 2,2 C 1,7 C 95 % 15 lf 999,1 hPa 0,0 l/m 0 min 2 min 33 W/m 6,8 km/h (2 Bft) 95,74 %
20.01.2018 15:38 2,7 C 2,2 C 1,7 C 95 % 15 lf 999,2 hPa 0,0 l/m 0 min 2 min 31 W/m 11,3 km/h (2 Bft) 95,74 %
20.01.2018 15:40 2,7 C 2,2 C 1,7 C 95 % 15 lf 999,1 hPa 0,0 l/m 0 min 2 min 26 W/m 11,3 km/h (2 Bft) 91,49 %
20.01.2018 15:42 2,7 C 2,2 C 1,7 C 95 % 15 lf 999,1 hPa 0,0 l/m 0 min 2 min 28 W/m 11,3 km/h (2 Bft) 97,83 %
20.01.2018 15:44 2,7 C 2,2 C 1,7 C 95 % 15 lf 999,1 hPa 0,0 l/m 0 min 2 min 25 W/m 9,0 km/h (2 Bft) 95,74 %
20.01.2018 15:46 2,7 C 2,2 C 1,7 C 95 % 14 lf 999,1 hPa 0,0 l/m 0 min 2 min 24 W/m 11,3 km/h (2 Bft) 95,74 %
20.01.2018 15:48 2,7 C 2,2 C 1,7 C 95 % 14 lf 999,1 hPa 0,0 l/m 0 min 2 min 23 W/m 9,0 km/h (2 Bft) 95,74 %
20.01.2018 15:50 2,7 C 2,2 C 1,7 C 95 % 15 lf 999,0 hPa 0,0 l/m 0 min 2 min 25 W/m 9,0 km/h (2 Bft) 93,62 %
20.01.2018 15:52 2,6 C 2,2 C 1,7 C 95 % 15 lf 999,0 hPa 0,0 l/m 0 min 2 min 24 W/m 9,0 km/h (2 Bft) 91,49 %
20.01.2018 15:54 2,6 C 2,2 C 1,7 C 95 % 15 lf 999,0 hPa 0,2 l/m 0 min 2 min 24 W/m 15,8 km/h (3 Bft) 95,65 %
20.01.2018 15:56 2,6 C 2,2 C 1,7 C 95 % 15 lf 999,0 hPa 0,0 l/m 0 min 2 min 23 W/m 11,3 km/h (2 Bft) 95,74 %
20.01.2018 15:58 2,6 C 2,2 C 1,7 C 95 % 15 lf 999,1 hPa 0,0 l/m 0 min 2 min 20 W/m 11,3 km/h (2 Bft) 95,74 %
20.01.2018 16:00 2,6 C 2,2 C 1,7 C 95 % 15 lf 999,0 hPa 0,0 l/m 0 min 2 min 18 W/m 9,0 km/h (2 Bft) 91,49 %
20.01.2018 16:02 2,6 C 2,2 C 1,7 C 95 % 15 lf 999,0 hPa 0,0 l/m 0 min 2 min 16 W/m 9,0 km/h (2 Bft) 95,74 %
20.01.2018 16:04 2,6 C 2,2 C 1,7 C 95 % 15 lf 999,0 hPa 0,0 l/m 0 min 2 min 15 W/m 9,0 km/h (2 Bft) 97,83 %
20.01.2018 16:06 2,6 C 2,2 C 1,7 C 95 % 15 lf 999,0 hPa 0,0 l/m 0 min 2 min 14 W/m 11,3 km/h (2 Bft) 95,74 %
20.01.2018 16:08 2,6 C 2,2 C 1,7 C 95 % 15 lf 998,9 hPa 0,0 l/m 0 min 2 min 15 W/m 13,5 km/h (3 Bft) 91,49 %
20.01.2018 16:10 2,6 C 2,2 C 1,7 C 95 % 15 lf 998,9 hPa 0,0 l/m 0 min 2 min 16 W/m 11,3 km/h (2 Bft) 95,74 %
20.01.2018 16:12 2,6 C 2,2 C 1,1 C 95 % 15 lf 998,9 hPa 0,0 l/m 0 min 2 min 18 W/m 9,0 km/h (2 Bft) 91,49 %
20.01.2018 16:14 2,6 C 2,2 C 1,7 C 95 % 15 lf 998,8 hPa 0,0 l/m 0 min 2 min 18 W/m 9,0 km/h (2 Bft) 97,87 %
20.01.2018 16:16 2,6 C 2,2 C 1,7 C 95 % 15 lf 998,8 hPa 0,0 l/m 0 min 2 min 17 W/m 11,3 km/h (2 Bft) 93,48 %
20.01.2018 16:18 2,6 C 2,2 C 1,7 C 95 % 15 lf 998,7 hPa 0,0 l/m 0 min 2 min 16 W/m 11,3 km/h (2 Bft) 97,87 %
20.01.2018 16:20 2,5 C 2,2 C 1,1 C 95 % 15 lf 998,7 hPa 0,0 l/m 0 min 2 min 16 W/m 15,8 km/h (3 Bft) 100,00 %
20.01.2018 16:22 2,5 C 2,2 C 1,1 C 95 % 15 lf 998,7 hPa 0,0 l/m 0 min 2 min 16 W/m 9,0 km/h (2 Bft) 97,87 %
20.01.2018 16:24 2,5 C 2,2 C 1,1 C 95 % 15 lf 998,7 hPa 0,0 l/m 0 min 2 min 15 W/m 11,3 km/h (2 Bft) 100,00 %
20.01.2018 16:26 2,5 C 2,2 C 1,1 C 95 % 15 lf 998,6 hPa 0,0 l/m 0 min 2 min 14 W/m 11,3 km/h (2 Bft) 97,87 %
20.01.2018 16:28 2,5 C 2,2 C 1,1 C 95 % 15 lf 998,6 hPa 0,0 l/m 0 min 2 min 15 W/m 6,8 km/h (2 Bft) 97,87 %
20.01.2018 16:30 2,4 C 1,7 C 1,1 C 95 % 15 lf 998,6 hPa 0,2 l/m 0 min 2 min 16 W/m 15,8 km/h (3 Bft) 100,00 %
20.01.2018 16:32 2,4 C 2,2 C 1,1 C 95 % 15 lf 998,6 hPa 0,0 l/m 0 min 2 min 15 W/m 9,0 km/h (2 Bft) 100,00 %
20.01.2018 16:34 2,4 C 2,2 C 1,1 C 95 % 15 lf 998,5 hPa 0,0 l/m 0 min 2 min 14 W/m 6,8 km/h (2 Bft) 100,00 %
20.01.2018 16:36 2,4 C 2,2 C 1,1 C 96 % 15 lf 998,5 hPa 0,0 l/m 0 min 2 min 14 W/m 13,5 km/h (3 Bft) 97,87 %
20.01.2018 16:38 2,4 C 1,7 C 1,1 C 96 % 15 lf 998,5 hPa 0,0 l/m 0 min 2 min 13 W/m 9,0 km/h (2 Bft) 100,00 %
20.01.2018 16:40 2,4 C 1,7 C 1,1 C 96 % 15 lf 998,5 hPa 0,0 l/m 0 min 2 min 12 W/m 11,3 km/h (2 Bft) 100,00 %
20.01.2018 16:42 2,4 C 1,7 C 1,1 C 95 % 15 lf 998,4 hPa 0,0 l/m 0 min 2 min 11 W/m 9,0 km/h (2 Bft) 97,87 %
20.01.2018 16:44 2,4 C 1,7 C 1,1 C 95 % 15 lf 998,5 hPa 0,0 l/m 0 min 2 min 9 W/m 13,5 km/h (3 Bft) 100,00 %
20.01.2018 16:46 2,4 C 1,7 C 1,1 C 95 % 15 lf 998,4 hPa 0,0 l/m 0 min 2 min 8 W/m 11,3 km/h (2 Bft) 97,87 %
20.01.2018 16:48 2,4 C 1,7 C 1,1 C 95 % 15 lf 998,4 hPa 0,0 l/m 0 min 2 min 7 W/m 11,3 km/h (2 Bft) 100,00 %
20.01.2018 16:50 2,4 C 1,7 C 1,1 C 95 % 15 lf 998,3 hPa 0,2 l/m 0 min 2 min 7 W/m 9,0 km/h (2 Bft) 100,00 %
20.01.2018 16:52 2,3 C 1,7 C 1,1 C 95 % 15 lf 998,3 hPa 0,0 l/m 0 min 2 min 7 W/m 6,8 km/h (2 Bft) 97,92 %
20.01.2018 16:54 2,3 C 1,7 C 1,1 C 95 % 15 lf 998,3 hPa 0,0 l/m 0 min 2 min 5 W/m 13,5 km/h (3 Bft) 95,83 %
20.01.2018 16:56 2,3 C 1,7 C 1,1 C 95 % 15 lf 998,2 hPa 0,0 l/m 0 min 2 min 5 W/m 11,3 km/h (2 Bft) 100,00 %
20.01.2018 16:58 2,3 C 1,7 C 1,1 C 95 % 15 lf 998,3 hPa 0,0 l/m 0 min 2 min 5 W/m 11,3 km/h (2 Bft) 100,00 %
20.01.2018 17:00 2,3 C 1,7 C 1,1 C 96 % 15 lf 998,2 hPa 0,0 l/m 0 min 2 min 5 W/m 9,0 km/h (2 Bft) 95,74 %
20.01.2018 17:02 2,3 C 1,7 C 1,1 C 96 % 15 lf 998,3 hPa 0,0 l/m 0 min 2 min 3 W/m 11,3 km/h (2 Bft) 95,35 %
20.01.2018 17:04 2,3 C 1,7 C 1,1 C 96 % 15 lf 998,3 hPa 0,0 l/m 0 min 2 min 0 W/m 9,0 km/h (2 Bft) 98,00 %
20.01.2018 17:06 2,3 C 1,7 C 1,1 C 96 % 15 lf 998,3 hPa 0,0 l/m 0 min 2 min 0 W/m 6,8 km/h (2 Bft) 95,74 %
20.01.2018 17:08 2,3 C 1,7 C 1,1 C 96 % 15 lf 998,2 hPa 0,0 l/m 0 min 2 min 0 W/m 9,0 km/h (2 Bft) 95,83 %
20.01.2018 17:10 2,3 C 1,7 C 1,1 C 96 % 15 lf 998,2 hPa 0,0 l/m 0 min 0 min 0 W/m 6,8 km/h (2 Bft) 97,96 %
20.01.2018 17:12 2,3 C 1,7 C 1,1 C 96 % 15 lf 998,2 hPa 0,0 l/m 0 min 0 min 0 W/m 9,0 km/h (2 Bft) 95,74 %
20.01.2018 17:14 2,3 C 1,7 C 1,1 C 96 % 15 lf 998,1 hPa 0,0 l/m 0 min 2 min 0 W/m 9,0 km/h (2 Bft) 97,87 %
20.01.2018 17:16 2,2 C 1,7 C 1,1 C 96 % 15 lf 998,2 hPa 0,0 l/m 0 min 2 min 0 W/m 11,3 km/h (2 Bft) 97,83 %
20.01.2018 17:18 2,3 C 1,7 C 1,1 C 96 % 15 lf 998,2 hPa 0,0 l/m 0 min 2 min 0 W/m 9,0 km/h (2 Bft) 97,87 %
20.01.2018 17:20 2,2 C 1,7 C 1,1 C 96 % 15 lf 998,3 hPa 0,0 l/m 0 min 2 min 0 W/m 11,3 km/h (2 Bft) 95,74 %
20.01.2018 17:22 2,2 C 1,7 C 1,1 C 96 % 15 lf 998,4 hPa 0,0 l/m 0 min 2 min 0 W/m 11,3 km/h (2 Bft) 92,86 %
20.01.2018 17:24 2,2 C 1,7 C 1,1 C 96 % 15 lf 998,4 hPa 0,0 l/m 0 min 2 min 0 W/m 6,8 km/h (2 Bft) 95,83 %
20.01.2018 17:26 2,2 C 1,7 C 1,1 C 96 % 15 lf 998,4 hPa 0,0 l/m 0 min 2 min 0 W/m 6,8 km/h (2 Bft) 97,87 %
20.01.2018 17:28 2,2 C 1,7 C 1,1 C 96 % 15 lf 998,3 hPa 0,0 l/m 0 min 2 min 0 W/m 9,0 km/h (2 Bft) 97,92 %
20.01.2018 17:30 2,2 C 1,7 C 1,1 C 96 % 15 lf 998,4 hPa 0,0 l/m 0 min 2 min 0 W/m 13,5 km/h (3 Bft) 97,92 %
20.01.2018 17:32 2,2 C 1,7 C 1,1 C 96 % 15 lf 998,5 hPa 0,0 l/m 0 min 2 min 0 W/m 9,0 km/h (2 Bft) 95,83 %
20.01.2018 17:34 2,2 C 1,7 C 1,1 C 96 % 15 lf 998,5 hPa 0,0 l/m 0 min 2 min 0 W/m 4,5 km/h (1 Bft) 97,87 %
20.01.2018 17:36 2,2 C 1,7 C 1,1 C 96 % 15 lf 998,5 hPa 0,0 l/m 0 min 2 min 0 W/m 2,3 km/h (1 Bft) 93,62 %
20.01.2018 17:38 2,2 C 1,7 C 1,1 C 96 % 15 lf 998,5 hPa 0,0 l/m 0 min 2 min 0 W/m 6,8 km/h (2 Bft) 93,48 %
20.01.2018 17:40 2,2 C 1,7 C 1,1 C 96 % 15 lf 998,5 hPa 0,0 l/m 0 min 0 min 0 W/m 4,5 km/h (1 Bft) 95,74 %
20.01.2018 17:42 2,2 C 1,7 C 1,1 C 96 % 15 lf 998,5 hPa 0,0 l/m 0 min 0 min 0 W/m 0,0 km/h (0 Bft) 97,62 %
20.01.2018 17:44 2,2 C 1,7 C 1,1 C 96 % 15 lf 998,5 hPa 0,0 l/m 0 min 2 min 0 W/m 0,0 km/h (0 Bft) 97,87 %
20.01.2018 17:46 2,2 C 1,7 C 1,1 C 96 % 15 lf 998,6 hPa 0,0 l/m 0 min 0 min 0 W/m 0,0 km/h (0 Bft) 97,92 %
20.01.2018 17:48 2,2 C 1,7 C 1,1 C 96 % 15 lf 998,6 hPa 0,0 l/m 0 min 0 min 0 W/m 4,5 km/h (1 Bft) 95,74 %
20.01.2018 17:50 2,2 C 1,7 C 1,1 C 96 % 15 lf 998,5 hPa 0,0 l/m 0 min 2 min 0 W/m 6,8 km/h (2 Bft) 93,62 %
20.01.2018 17:52 2,2 C 1,7 C 1,1 C 96 % 15 lf 998,5 hPa 0,0 l/m 0 min 0 min 0 W/m 6,8 km/h (2 Bft) 95,92 %
20.01.2018 17:54 2,2 C 1,7 C 1,1 C 96 % 15 lf 998,5 hPa 0,0 l/m 0 min 2 min 0 W/m 4,5 km/h (1 Bft) 95,74 %
20.01.2018 17:56 2,2 C 1,7 C 1,1 C 96 % 15 lf 998,5 hPa 0,0 l/m 0 min 2 min 0 W/m 2,3 km/h (1 Bft) 95,74 %
20.01.2018 17:58 2,2 C 1,7 C 1,1 C 96 % 15 lf 998,5 hPa 0,0 l/m 0 min 0 min 0 W/m 11,3 km/h (2 Bft) 95,74 %
20.01.2018 18:00 2,2 C 1,7 C 1,1 C 96 % 15 lf 998,3 hPa 0,0 l/m 0 min 0 min 0 W/m 9,0 km/h (2 Bft) 95,65 %
20.01.2018 18:02 2,2 C 1,7 C 1,1 C 96 % 15 lf 998,3 hPa 0,0 l/m 0 min 2 min 0 W/m 9,0 km/h (2 Bft) 95,74 %
20.01.2018 18:04 2,2 C 1,7 C 1,1 C 96 % 15 lf 998,3 hPa 0,0 l/m 0 min 2 min 0 W/m 11,3 km/h (2 Bft) 95,74 %
20.01.2018 18:06 2,2 C 1,7 C 1,1 C 96 % 15 lf 998,3 hPa 0,0 l/m 0 min 0 min 0 W/m 6,8 km/h (2 Bft) 94,29 %
20.01.2018 18:08 2,2 C 1,7 C 1,1 C 96 % 15 lf 998,3 hPa 0,0 l/m 0 min 0 min 0 W/m 9,0 km/h (2 Bft) 97,87 %
20.01.2018 18:10 2,2 C 1,7 C 1,1 C 96 % 15 lf 998,2 hPa 0,0 l/m 0 min 0 min 0 W/m 11,3 km/h (2 Bft) 95,74 %
20.01.2018 18:12 2,2 C 1,7 C 1,1 C 96 % 15 lf 998,2 hPa 0,0 l/m 0 min 0 min 0 W/m 6,8 km/h (2 Bft) 97,87 %
20.01.2018 18:14 2,2 C 1,7 C 1,1 C 96 % 15 lf 998,3 hPa 0,0 l/m 0 min 0 min 0 W/m 9,0 km/h (2 Bft) 97,87 %
20.01.2018 18:16 2,2 C 1,7 C 1,1 C 96 % 15 lf 998,3 hPa 0,0 l/m 0 min 0 min 0 W/m 6,8 km/h (2 Bft) 97,83 %
20.01.2018 18:18 2,1 C 1,7 C 1,1 C 96 % 15 lf 998,2 hPa 0,0 l/m 0 min 0 min 0 W/m 9,0 km/h (2 Bft) 95,74 %
20.01.2018 18:20 2,1 C 1,7 C 1,1 C 96 % 15 lf 998,2 hPa 0,0 l/m 0 min 0 min 0 W/m 9,0 km/h (2 Bft) 96,61 %
20.01.2018 18:22 2,1 C 1,7 C 1,1 C 96 % 15 lf 998,3 hPa 0,2 l/m 0 min 0 min 0 W/m 6,8 km/h (2 Bft) 95,83 %
20.01.2018 18:24 2,1 C 1,7 C 1,1 C 96 % 15 lf 998,3 hPa 0,0 l/m 0 min 0 min 0 W/m 4,5 km/h (1 Bft) 94,44 %
20.01.2018 18:26 2,1 C 1,7 C 1,1 C 96 % 15 lf 998,4 hPa 0,0 l/m 0 min 0 min 0 W/m 4,5 km/h (1 Bft) 93,62 %
20.01.2018 18:28 2,1 C 1,7 C 1,1 C 96 % 15 lf 998,4 hPa 0,0 l/m 0 min 0 min 0 W/m 6,8 km/h (2 Bft) 97,83 %
20.01.2018 18:30 2,1 C 1,7 C 1,1 C 96 % 15 lf 998,4 hPa 0,0 l/m 0 min 0 min 0 W/m 4,5 km/h (1 Bft) 97,87 %
20.01.2018 18:32 2,1 C 1,7 C 1,1 C 96 % 15 lf 998,5 hPa 0,0 l/m 0 min 0 min 0 W/m 4,5 km/h (1 Bft) 97,87 %
20.01.2018 18:34 2,1 C 1,7 C 1,1 C 96 % 15 lf 998,5 hPa 0,0 l/m 0 min 0 min 0 W/m 4,5 km/h (1 Bft) 95,74 %
20.01.2018 18:36 2,1 C 1,7 C 1,1 C 96 % 15 lf 998,5 hPa 0,0 l/m 0 min 0 min 0 W/m 2,3 km/h (1 Bft) 100,00 %
20.01.2018 18:38 2,1 C 1,7 C 1,1 C 96 % 15 lf 998,5 hPa 0,0 l/m 0 min 0 min 0 W/m 4,5 km/h (1 Bft) 100,00 %
20.01.2018 18:40 2,1 C 1,7 C 1,1 C 96 % 15 lf 998,5 hPa 0,0 l/m 0 min 0 min 0 W/m 2,3 km/h (1 Bft) 97,83 %
20.01.2018 18:42 2,1 C 1,7 C 1,1 C 96 % 15 lf 998,5 hPa 0,0 l/m 0 min 0 min 0 W/m 0,0 km/h (0 Bft) 100,00 %
20.01.2018 18:44 2,1 C 1,7 C 1,1 C 96 % 15 lf 998,5 hPa 0,0 l/m 0 min 0 min 0 W/m 0,0 km/h (0 Bft) 95,74 %
20.01.2018 18:46 2,1 C 1,7 C 1,1 C 96 % 15 lf 998,5 hPa 0,0 l/m 0 min 0 min 0 W/m 4,5 km/h (1 Bft) 100,00 %
20.01.2018 18:48 2,1 C 1,7 C 1,1 C 96 % 15 lf 998,5 hPa 0,0 l/m 0 min 0 min 0 W/m 4,5 km/h (1 Bft) 100,00 %
20.01.2018 18:50 2,1 C 1,7 C 1,1 C 96 % 15 lf 998,5 hPa 0,0 l/m 0 min 2 min 0 W/m 0,0 km/h (0 Bft) 100,00 %
20.01.2018 18:52 2,1 C 1,7 C 1,1 C 96 % 15 lf 998,5 hPa 0,0 l/m 0 min 2 min 0 W/m 0,0 km/h (0 Bft) 97,62 %
20.01.2018 18:54 2,1 C 1,7 C 1,1 C 96 % 15 lf 998,5 hPa 0,0 l/m 0 min 0 min 0 W/m 0,0 km/h (0 Bft) 97,14 %
20.01.2018 18:56 2,1 C 1,7 C 1,1 C 96 % 15 lf 998,6 hPa 0,0 l/m 0 min 2 min 0 W/m 0,0 km/h (0 Bft) 100,00 %
20.01.2018 18:58 2,1 C 1,7 C 1,1 C 96 % 15 lf 998,6 hPa 0,0 l/m 0 min 2 min 0 W/m 0,0 km/h (0 Bft) 100,00 %
20.01.2018 19:00 2,1 C 1,7 C 1,1 C 96 % 15 lf 998,6 hPa 0,0 l/m 0 min 2 min 0 W/m 0,0 km/h (0 Bft) 100,00 %
20.01.2018 19:02 2,1 C 1,7 C 1,1 C 96 % 15 lf 998,6 hPa 0,0 l/m 0 min 2 min 0 W/m 0,0 km/h (0 Bft) 100,00 %
20.01.2018 19:04 2,1 C 1,7 C 1,1 C 96 % 15 lf 998,6 hPa 0,0 l/m 0 min 0 min 0 W/m 0,0 km/h (0 Bft) 97,83 %
20.01.2018 19:06 2,1 C 1,7 C 1,1 C 96 % 15 lf 998,5 hPa 0,0 l/m 0 min 2 min 0 W/m 0,0 km/h (0 Bft) 100,00 %
20.01.2018 19:08 2,1 C 1,7 C 1,1 C 96 % 15 lf 998,6 hPa 0,0 l/m 0 min 2 min 0 W/m 0,0 km/h (0 Bft) 97,87 %
20.01.2018 19:10 2,1 C 1,7 C 1,1 C 96 % 15 lf 998,6 hPa 0,0 l/m 0 min 2 min 0 W/m 0,0 km/h (0 Bft) 97,87 %
20.01.2018 19:12 2,1 C 1,7 C 1,1 C 96 % 15 lf 998,6 hPa 0,0 l/m 0 min 2 min 0 W/m 0,0 km/h (0 Bft) 93,75 %
20.01.2018 19:14 2,1 C 1,7 C 1,1 C 96 % 15 lf 998,6 hPa 0,0 l/m 0 min 2 min 0 W/m 0,0 km/h (0 Bft) 97,83 %
20.01.2018 19:16 2,1 C 1,7 C 1,1 C 96 % 15 lf 998,6 hPa 0,0 l/m 0 min 2 min 0 W/m 0,0 km/h (0 Bft) 95,74 %
20.01.2018 19:18 2,1 C 1,7 C 1,1 C 96 % 15 lf 998,6 hPa 0,0 l/m 0 min 2 min 0 W/m 0,0 km/h (0 Bft) 95,74 %
20.01.2018 19:20 2,1 C 1,7 C 1,1 C 96 % 15 lf 998,6 hPa 0,0 l/m 0 min 0 min 0 W/m 0,0 km/h (0 Bft) 98,31 %
20.01.2018 19:22 2,1 C 1,7 C 1,1 C 96 % 15 lf 998,6 hPa 0,0 l/m 0 min 2 min 0 W/m 0,0 km/h (0 Bft) 97,83 %
20.01.2018 19:24 2,1 C 1,7 C 1,1 C 96 % 15 lf 998,7 hPa 0,0 l/m 0 min 2 min 0 W/m 0,0 km/h (0 Bft) 88,89 %
20.01.2018 19:26 2,1 C 1,7 C 1,1 C 96 % 15 lf 998,7 hPa 0,0 l/m 0 min 0 min 0 W/m 0,0 km/h (0 Bft) 94,64 %
20.01.2018 19:28 2,1 C 1,7 C 1,1 C 96 % 15 lf 998,7 hPa 0,0 l/m 0 min 0 min 0 W/m 0,0 km/h (0 Bft) 93,62 %
20.01.2018 19:30 2,1 C 1,7 C 1,1 C 96 % 15 lf 998,6 hPa 0,0 l/m 0 min 0 min 0 W/m 0,0 km/h (0 Bft) 95,74 %
20.01.2018 19:32 2,1 C 1,7 C 1,1 C 96 % 15 lf 998,7 hPa 0,0 l/m 0 min 0 min 0 W/m 0,0 km/h (0 Bft) 95,74 %
20.01.2018 19:34 2,1 C 1,7 C 1,1 C 96 % 15 lf 998,7 hPa 0,0 l/m 0 min 0 min 0 W/m 0,0 km/h (0 Bft) 91,49 %
20.01.2018 19:36 2,1 C 1,7 C 1,1 C 96 % 15 lf 998,8 hPa 0,0 l/m 0 min 0 min 0 W/m 0,0 km/h (0 Bft) 93,48 %
20.01.2018 19:38 2,1 C 1,7 C 1,1 C 96 % 15 lf 998,8 hPa 0,0 l/m 0 min 0 min 0 W/m 0,0 km/h (0 Bft) 93,62 %
20.01.2018 19:40 2,1 C 1,7 C 1,1 C 96 % 15 lf 998,8 hPa 0,0 l/m 0 min 0 min 0 W/m 0,0 km/h (0 Bft) 91,49 %
20.01.2018 19:42 2,1 C 1,7 C 1,1 C 96 % 15 lf 998,8 hPa 0,0 l/m 0 min 0 min 0 W/m 0,0 km/h (0 Bft) 91,49 %
20.01.2018 19:44 2,1 C 1,7 C 1,1 C 96 % 15 lf 998,8 hPa 0,0 l/m 0 min 2 min 0 W/m 0,0 km/h (0 Bft) 91,49 %
20.01.2018 19:46 2,1 C 1,7 C 1,1 C 97 % 15 lf 998,8 hPa 0,0 l/m 0 min 2 min 0 W/m 0,0 km/h (0 Bft) 93,62 %
20.01.2018 19:48 2,1 C 1,7 C 1,1 C 97 % 15 lf 998,8 hPa 0,0 l/m 0 min 2 min 0 W/m 0,0 km/h (0 Bft) 93,48 %
20.01.2018 19:50 2,1 C 1,7 C 1,1 C 97 % 15 lf 998,8 hPa 0,0 l/m 0 min 0 min 0 W/m 0,0 km/h (0 Bft) 95,74 %
20.01.2018 19:52 2,1 C 1,7 C 1,1 C 97 % 15 lf 998,9 hPa 0,0 l/m 0 min 2 min 0 W/m 0,0 km/h (0 Bft) 93,62 %
20.01.2018 19:54 2,1 C 1,7 C 1,1 C 97 % 15 lf 999,0 hPa 0,0 l/m 0 min 2 min 0 W/m 0,0 km/h (0 Bft) 93,62 %
20.01.2018 19:56 2,1 C 1,7 C 1,1 C 97 % 15 lf 998,9 hPa 0,0 l/m 0 min 2 min 0 W/m 0,0 km/h (0 Bft) 91,49 %
20.01.2018 19:58 2,1 C 1,7 C 1,1 C 97 % 15 lf 999,0 hPa 0,0 l/m 0 min 0 min 0 W/m 0,0 km/h (0 Bft) 95,74 %
20.01.2018 20:00 2,1 C 1,7 C 1,1 C 97 % 15 lf 998,9 hPa 0,0 l/m 0 min 2 min 0 W/m 0,0 km/h (0 Bft) 95,92 %
20.01.2018 20:02 2,1 C 1,7 C 1,1 C 97 % 15 lf 999,0 hPa 0,0 l/m 0 min 2 min 0 W/m 0,0 km/h (0 Bft) 95,74 %
20.01.2018 20:04 2,1 C 1,7 C 1,1 C 97 % 15 lf 999,0 hPa 0,0 l/m 0 min 0 min 0 W/m 0,0 km/h (0 Bft) 95,74 %
20.01.2018 20:06 2,1 C 1,7 C 1,1 C 97 % 15 lf 999,1 hPa 0,0 l/m 0 min 0 min 0 W/m 0,0 km/h (0 Bft) 95,74 %
20.01.2018 20:08 2,1 C 1,7 C 1,1 C 97 % 15 lf 999,1 hPa 0,0 l/m 0 min 0 min 0 W/m 0,0 km/h (0 Bft) 95,74 %
20.01.2018 20:10 2,1 C 1,7 C 1,1 C 97 % 15 lf 999,1 hPa 0,0 l/m 0 min 0 min 0 W/m 0,0 km/h (0 Bft) 95,65 %
20.01.2018 20:12 2,1 C 1,7 C 1,1 C 97 % 15 lf 999,2 hPa 0,0 l/m 0 min 0 min 0 W/m 0,0 km/h (0 Bft) 91,49 %
20.01.2018 20:14 2,1 C 1,7 C 1,1 C 97 % 15 lf 999,2 hPa 0,0 l/m 0 min 0 min 0 W/m 0,0 km/h (0 Bft) 85,11 %
20.01.2018 20:16 2,1 C 1,7 C 1,1 C 97 % 15 lf 999,3 hPa 0,0 l/m 0 min 0 min 0 W/m 2,3 km/h (1 Bft) 95,74 %
20.01.2018 20:18 2,1 C 1,7 C 1,1 C 97 % 15 lf 999,3 hPa 0,0 l/m 0 min 2 min 0 W/m 4,5 km/h (1 Bft) 93,62 %
20.01.2018 20:20 2,1 C 2,2 C 1,1 C 97 % 15 lf 999,3 hPa 0,0 l/m 0 min 0 min 0 W/m 4,5 km/h (1 Bft) 97,87 %
20.01.2018 20:22 2,1 C 2,2 C 1,1 C 97 % 15 lf 999,3 hPa 0,0 l/m 0 min 0 min 0 W/m 2,3 km/h (1 Bft) 97,83 %
20.01.2018 20:24 2,1 C 2,2 C 1,1 C 97 % 15 lf 999,3 hPa 0,0 l/m 0 min 0 min 0 W/m 0,0 km/h (0 Bft) 100,00 %
20.01.2018 20:26 2,2 C 2,2 C 1,1 C 97 % 15 lf 999,4 hPa 0,0 l/m 0 min 0 min 0 W/m 0,0 km/h (0 Bft) 100,00 %
20.01.2018 20:28 2,1 C 2,2 C 1,1 C 97 % 15 lf 999,4 hPa 0,0 l/m 0 min 0 min 0 W/m 0,0 km/h (0 Bft) 100,00 %
20.01.2018 20:30 2,2 C 2,2 C 1,1 C 97 % 15 lf 999,4 hPa 0,0 l/m 0 min 2 min 0 W/m 0,0 km/h (0 Bft) 97,87 %
20.01.2018 20:32 2,2 C 2,2 C 1,1 C 97 % 15 lf 999,4 hPa 0,0 l/m 0 min 2 min 0 W/m 0,0 km/h (0 Bft) 100,00 %
20.01.2018 20:34 2,2 C 2,2 C 1,1 C 97 % 15 lf 999,4 hPa 0,0 l/m 0 min 2 min 0 W/m 0,0 km/h (0 Bft) 100,00 %
20.01.2018 20:36 2,2 C 2,2 C 1,1 C 97 % 15 lf 999,5 hPa 0,0 l/m 0 min 2 min 0 W/m 0,0 km/h (0 Bft) 100,00 %
20.01.2018 20:38 2,2 C 2,2 C 1,1 C 97 % 15 lf 999,5 hPa 0,0 l/m 0 min 2 min 0 W/m 2,3 km/h (1 Bft) 100,00 %
20.01.2018 20:40 2,2 C 1,7 C 1,1 C 97 % 15 lf 999,6 hPa 0,0 l/m 0 min 2 min 0 W/m 6,8 km/h (2 Bft) 93,62 %
20.01.2018 20:42 2,2 C 1,7 C 1,1 C 97 % 15 lf 999,6 hPa 0,0 l/m 0 min 2 min 0 W/m 6,8 km/h (2 Bft) 91,49 %
20.01.2018 20:44 2,2 C 1,7 C 1,1 C 97 % 15 lf 999,7 hPa 0,0 l/m 0 min 2 min 0 W/m 2,3 km/h (1 Bft) 97,87 %
20.01.2018 20:46 2,2 C 1,7 C 1,1 C 97 % 15 lf 999,8 hPa 0,0 l/m 0 min 2 min 0 W/m 4,5 km/h (1 Bft) 95,65 %
20.01.2018 20:48 2,2 C 1,7 C 1,1 C 97 % 15 lf 999,8 hPa 0,0 l/m 0 min 2 min 0 W/m 4,5 km/h (1 Bft) 95,74 %
20.01.2018 20:50 2,2 C 2,2 C 1,1 C 97 % 15 lf 999,8 hPa 0,0 l/m 0 min 2 min 0 W/m 9,0 km/h (2 Bft) 97,87 %
20.01.2018 20:52 2,2 C 2,2 C 1,1 C 97 % 15 lf 999,8 hPa 0,0 l/m 0 min 2 min 0 W/m 6,8 km/h (2 Bft) 95,74 %
20.01.2018 20:54 2,2 C 2,2 C 1,1 C 97 % 15 lf 999,8 hPa 0,0 l/m 0 min 2 min 0 W/m 6,8 km/h (2 Bft) 97,87 %
20.01.2018 20:56 2,2 C 2,2 C 1,1 C 97 % 15 lf 999,8 hPa 0,0 l/m 0 min 2 min 0 W/m 4,5 km/h (1 Bft) 97,83 %
20.01.2018 20:58 2,2 C 2,2 C 1,1 C 97 % 15 lf 1000,0 hPa 0,0 l/m 0 min 2 min 0 W/m 4,5 km/h (1 Bft) 97,87 %
20.01.2018 21:00 2,2 C 2,2 C 1,1 C 97 % 15 lf 1000,0 hPa 0,0 l/m 0 min 2 min 0 W/m 6,8 km/h (2 Bft) 95,74 %
20.01.2018 21:02 2,2 C 2,2 C 1,1 C 97 % 15 lf 1000,0 hPa 0,0 l/m 0 min 2 min 0 W/m 6,8 km/h (2 Bft) 91,49 %
20.01.2018 21:04 2,2 C 2,2 C 1,1 C 97 % 15 lf 1000,0 hPa 0,0 l/m 0 min 2 min 0 W/m 4,5 km/h (1 Bft) 95,74 %
20.01.2018 21:06 2,2 C 2,2 C 1,1 C 97 % 15 lf 1000,0 hPa 0,2 l/m 0 min 2 min 0 W/m 6,8 km/h (2 Bft) 93,62 %
20.01.2018 21:08 2,2 C 2,2 C 1,1 C 97 % 15 lf 1000,1 hPa 0,0 l/m 0 min 2 min 0 W/m 6,8 km/h (2 Bft) 97,83 %
20.01.2018 21:10 2,2 C 2,2 C 1,1 C 97 % 15 lf 1000,0 hPa 0,0 l/m 0 min 2 min 0 W/m 9,0 km/h (2 Bft) 97,87 %
20.01.2018 21:12 2,2 C 2,2 C 1,1 C 97 % 15 lf 1000,0 hPa 0,0 l/m 0 min 2 min 0 W/m 6,8 km/h (2 Bft) 97,87 %
20.01.2018 21:14 2,2 C 1,7 C 1,1 C 97 % 15 lf 1000,1 hPa 0,0 l/m 0 min 2 min 0 W/m 11,3 km/h (2 Bft) 95,74 %
20.01.2018 21:16 2,2 C 2,2 C 1,1 C 97 % 15 lf 1000,1 hPa 0,0 l/m 0 min 2 min 0 W/m 9,0 km/h (2 Bft) 91,49 %
20.01.2018 21:18 2,2 C 2,2 C 1,1 C 97 % 15 lf 1000,1 hPa 0,0 l/m 0 min 2 min 0 W/m 6,8 km/h (2 Bft) 95,74 %
20.01.2018 21:20 2,2 C 2,2 C 1,1 C 97 % 15 lf 1000,1 hPa 0,0 l/m 0 min 2 min 0 W/m 2,3 km/h (1 Bft) 95,65 %
20.01.2018 21:22 2,2 C 2,2 C 1,1 C 97 % 15 lf 1000,1 hPa 0,0 l/m 0 min 2 min 0 W/m 9,0 km/h (2 Bft) 93,62 %
20.01.2018 21:24 2,2 C 1,7 C 1,1 C 97 % 15 lf 1000,2 hPa 0,0 l/m 0 min 2 min 0 W/m 6,8 km/h (2 Bft) 93,62 %
20.01.2018 21:26 2,2 C 2,2 C 1,1 C 97 % 15 lf 1000,1 hPa 0,0 l/m 0 min 2 min 0 W/m 9,0 km/h (2 Bft) 95,74 %
20.01.2018 21:28 2,2 C 2,2 C 1,1 C 97 % 15 lf 1000,2 hPa 0,0 l/m 0 min 2 min 0 W/m 6,8 km/h (2 Bft) 97,87 %
20.01.2018 21:30 2,2 C 2,2 C 1,1 C 97 % 15 lf 1000,3 hPa 0,0 l/m 0 min 2 min 0 W/m 11,3 km/h (2 Bft) 93,62 %
20.01.2018 21:32 2,2 C 2,2 C 1,1 C 97 % 15 lf 1000,3 hPa 0,0 l/m 0 min 2 min 0 W/m 11,3 km/h (2 Bft) 97,83 %
20.01.2018 21:34 2,2 C 1,7 C 1,1 C 97 % 15 lf 1000,3 hPa 0,0 l/m 0 min 2 min 0 W/m 9,0 km/h (2 Bft) 95,74 %
20.01.2018 21:36 2,2 C 1,7 C 1,1 C 97 % 15 lf 1000,4 hPa 0,0 l/m 0 min 2 min 0 W/m 9,0 km/h (2 Bft) 93,62 %
20.01.2018 21:38 2,2 C 1,7 C 1,1 C 97 % 15 lf 1000,3 hPa 0,0 l/m 0 min 2 min 0 W/m 13,5 km/h (3 Bft) 97,87 %
20.01.2018 21:40 2,2 C 1,7 C 1,1 C 97 % 15 lf 1000,4 hPa 0,0 l/m 0 min 2 min 0 W/m 15,8 km/h (3 Bft) 95,74 %
20.01.2018 21:42 2,2 C 1,7 C 1,1 C 97 % 15 lf 1000,4 hPa 0,0 l/m 0 min 2 min 0 W/m 11,3 km/h (2 Bft) 97,87 %
20.01.2018 21:44 2,2 C 1,7 C 1,1 C 97 % 15 lf 1000,3 hPa 0,0 l/m 0 min 2 min 0 W/m 9,0 km/h (2 Bft) 100,00 %
20.01.2018 21:46 2,2 C 1,7 C 1,1 C 97 % 15 lf 1000,4 hPa 0,0 l/m 0 min 2 min 0 W/m 13,5 km/h (3 Bft) 100,00 %
20.01.2018 21:48 2,2 C 1,7 C 1,1 C 97 % 15 lf 1000,4 hPa 0,0 l/m 0 min 2 min 0 W/m 9,0 km/h (2 Bft) 100,00 %
20.01.2018 21:50 2,2 C 1,7 C 1,1 C 97 % 15 lf 1000,4 hPa 0,0 l/m 0 min 2 min 0 W/m 6,8 km/h (2 Bft) 100,00 %
20.01.2018 21:52 2,2 C 1,7 C 1,1 C 97 % 15 lf 1000,4 hPa 0,0 l/m 0 min 2 min 0 W/m 6,8 km/h (2 Bft) 95,74 %
20.01.2018 21:54 2,2 C 1,7 C 1,1 C 97 % 15 lf 1000,4 hPa 0,0 l/m 0 min 2 min 0 W/m 13,5 km/h (3 Bft) 100,00 %
20.01.2018 21:56 2,1 C 1,7 C 1,1 C 97 % 15 lf 1000,5 hPa 0,0 l/m 0 min 2 min 0 W/m 11,3 km/h (2 Bft) 100,00 %
20.01.2018 21:58 2,1 C 1,7 C 1,1 C 97 % 15 lf 1000,4 hPa 0,0 l/m 0 min 2 min 0 W/m 11,3 km/h (2 Bft) 100,00 %
20.01.2018 22:00 2,1 C 1,7 C 1,1 C 97 % 15 lf 1000,5 hPa 0,0 l/m 0 min 2 min 0 W/m 11,3 km/h (2 Bft) 100,00 %
20.01.2018 22:02 2,1 C 1,7 C 1,1 C 97 % 15 lf 1000,5 hPa 0,0 l/m 0 min 0 min 0 W/m 9,0 km/h (2 Bft) 97,87 %
20.01.2018 22:04 2,1 C 1,7 C 1,1 C 97 % 15 lf 1000,6 hPa 0,0 l/m 0 min 2 min 0 W/m 11,3 km/h (2 Bft) 100,00 %
20.01.2018 22:06 2,1 C 1,7 C 1,1 C 97 % 15 lf 1000,6 hPa 0,0 l/m 0 min 0 min 0 W/m 13,5 km/h (3 Bft) 100,00 %
20.01.2018 22:08 2,1 C 1,7 C 1,1 C 97 % 15 lf 1000,7 hPa 0,0 l/m 0 min 0 min 0 W/m 11,3 km/h (2 Bft) 100,00 %
20.01.2018 22:10 2,1 C 1,7 C 1,1 C 97 % 15 lf 1000,7 hPa 0,0 l/m 0 min 0 min 0 W/m 6,8 km/h (2 Bft) 97,87 %
20.01.2018 22:12 2,1 C 1,7 C 1,1 C 97 % 15 lf 1000,8 hPa 0,0 l/m 0 min 0 min 0 W/m 11,3 km/h (2 Bft) 100,00 %
20.01.2018 22:14 2,0 C 1,7 C 1,1 C 97 % 15 lf 1000,8 hPa 0,0 l/m 0 min 0 min 0 W/m 9,0 km/h (2 Bft) 100,00 %
20.01.2018 22:16 2,0 C 1,7 C 1,1 C 97 % 15 lf 1000,7 hPa 0,0 l/m 0 min 0 min 0 W/m 9,0 km/h (2 Bft) 95,74 %
20.01.2018 22:18 2,0 C 1,7 C 1,1 C 97 % 15 lf 1000,7 hPa 0,0 l/m 0 min 0 min 0 W/m 11,3 km/h (2 Bft) 97,83 %
20.01.2018 22:20 2,0 C 1,7 C 1,1 C 97 % 15 lf 1000,8 hPa 0,0 l/m 0 min 0 min 0 W/m 9,0 km/h (2 Bft) 97,87 %
20.01.2018 22:22 2,0 C 1,7 C 1,1 C 97 % 15 lf 1000,9 hPa 0,0 l/m 0 min 0 min 0 W/m 11,3 km/h (2 Bft) 95,74 %
20.01.2018 22:24 2,0 C 1,7 C 1,1 C 97 % 15 lf 1000,9 hPa 0,0 l/m 0 min 0 min 0 W/m 11,3 km/h (2 Bft) 97,87 %
20.01.2018 22:26 2,0 C 1,7 C 1,1 C 97 % 15 lf 1000,9 hPa 0,0 l/m 0 min 0 min 0 W/m 11,3 km/h (2 Bft) 97,87 %
20.01.2018 22:28 1,9 C 1,7 C 1,1 C 97 % 15 lf 1001,0 hPa 0,0 l/m 0 min 0 min 0 W/m 11,3 km/h (2 Bft) 97,87 %
20.01.2018 22:30 1,9 C 1,7 C 1,1 C 97 % 15 lf 1001,0 hPa 0,0 l/m 0 min 0 min 0 W/m 11,3 km/h (2 Bft) 91,30 %
20.01.2018 22:32 1,9 C 1,7 C 1,1 C 97 % 15 lf 1001,1 hPa 0,0 l/m 0 min 0 min 0 W/m 9,0 km/h (2 Bft) 95,74 %
20.01.2018 22:34 1,9 C 1,7 C 1,1 C 97 % 15 lf 1001,1 hPa 0,0 l/m 0 min 0 min 0 W/m 9,0 km/h (2 Bft) 97,87 %
20.01.2018 22:36 1,9 C 1,7 C 1,1 C 97 % 15 lf 1001,2 hPa 0,0 l/m 0 min 0 min 0 W/m 11,3 km/h (2 Bft) 97,87 %
20.01.2018 22:38 1,9 C 1,7 C 1,1 C 97 % 15 lf 1001,2 hPa 0,0 l/m 0 min 0 min 0 W/m 9,0 km/h (2 Bft) 97,87 %
20.01.2018 22:40 1,9 C 1,7 C 1,1 C 97 % 15 lf 1001,2 hPa 0,0 l/m 0 min 0 min 0 W/m 9,0 km/h (2 Bft) 93,62 %
20.01.2018 22:42 1,9 C 1,7 C 1,1 C 97 % 15 lf 1001,3 hPa 0,0 l/m 0 min 2 min 0 W/m 11,3 km/h (2 Bft) 97,83 %
20.01.2018 22:44 1,9 C 1,7 C 1,1 C 97 % 15 lf 1001,4 hPa 0,0 l/m 0 min 0 min 0 W/m 9,0 km/h (2 Bft) 97,87 %
20.01.2018 22:46 1,9 C 1,7 C 1,1 C 97 % 15 lf 1001,4 hPa 0,0 l/m 0 min 0 min 0 W/m 11,3 km/h (2 Bft) 97,87 %
20.01.2018 22:48 1,9 C 1,7 C 1,1 C 97 % 15 lf 1001,5 hPa 0,0 l/m 0 min 0 min 0 W/m 11,3 km/h (2 Bft) 95,74 %
20.01.2018 22:50 1,9 C 1,7 C 1,1 C 97 % 15 lf 1001,5 hPa 0,0 l/m 0 min 0 min 0 W/m 11,3 km/h (2 Bft) 95,74 %
20.01.2018 22:52 1,9 C 1,7 C 1,1 C 97 % 15 lf 1001,5 hPa 0,0 l/m 0 min 0 min 0 W/m 11,3 km/h (2 Bft) 97,62 %
20.01.2018 22:54 1,9 C 1,7 C 1,1 C 97 % 15 lf 1001,5 hPa 0,0 l/m 0 min 0 min 0 W/m 13,5 km/h (3 Bft) 97,83 %
20.01.2018 22:56 1,9 C 1,7 C 1,1 C 97 % 15 lf 1001,5 hPa 0,0 l/m 0 min 0 min 0 W/m 13,5 km/h (3 Bft) 97,87 %
20.01.2018 22:58 1,9 C 1,7 C 1,1 C 97 % 15 lf 1001,5 hPa 0,0 l/m 0 min 0 min 0 W/m 11,3 km/h (2 Bft) 97,87 %
20.01.2018 23:00 1,9 C 1,7 C 1,1 C 97 % 15 lf 1001,6 hPa 0,0 l/m 0 min 0 min 0 W/m 11,3 km/h (2 Bft) 97,87 %
20.01.2018 23:02 1,9 C 1,7 C 1,1 C 97 % 15 lf 1001,6 hPa 0,0 l/m 0 min 0 min 0 W/m 11,3 km/h (2 Bft) 93,62 %
20.01.2018 23:04 1,9 C 1,7 C 1,1 C 97 % 15 lf 1001,7 hPa 0,0 l/m 0 min 0 min 0 W/m 11,3 km/h (2 Bft) 97,83 %
20.01.2018 23:06 1,9 C 1,7 C 1,1 C 97 % 15 lf 1001,7 hPa 0,0 l/m 0 min 0 min 0 W/m 11,3 km/h (2 Bft) 93,62 %
20.01.2018 23:08 1,9 C 1,7 C 1,1 C 97 % 15 lf 1001,9 hPa 0,0 l/m 0 min 0 min 0 W/m 13,5 km/h (3 Bft) 95,74 %
20.01.2018 23:10 1,9 C 1,7 C 1,1 C 97 % 15 lf 1001,9 hPa 0,0 l/m 0 min 2 min 0 W/m 11,3 km/h (2 Bft) 97,87 %
20.01.2018 23:12 1,9 C 1,7 C 1,1 C 97 % 15 lf 1001,9 hPa 0,0 l/m 0 min 2 min 0 W/m 6,8 km/h (2 Bft) 89,36 %
20.01.2018 23:14 1,9 C 1,7 C 1,1 C 97 % 15 lf 1002,0 hPa 0,0 l/m 0 min 0 min 0 W/m 6,8 km/h (2 Bft) 95,74 %
20.01.2018 23:16 1,9 C 1,7 C 1,1 C 97 % 15 lf 1002,0 hPa 0,0 l/m 0 min 2 min 0 W/m 9,0 km/h (2 Bft) 95,65 %
20.01.2018 23:18 1,9 C 1,7 C 1,1 C 97 % 15 lf 1002,0 hPa 0,0 l/m 0 min 2 min 0 W/m 6,8 km/h (2 Bft) 97,87 %
20.01.2018 23:20 1,9 C 1,7 C 1,1 C 97 % 15 lf 1002,0 hPa 0,0 l/m 0 min 2 min 0 W/m 4,5 km/h (1 Bft) 95,74 %
20.01.2018 23:22 1,9 C 1,7 C 1,1 C 97 % 15 lf 1002,0 hPa 0,2 l/m 0 min 0 min 0 W/m 13,5 km/h (3 Bft) 95,74 %
20.01.2018 23:24 1,9 C 1,7 C 1,1 C 97 % 15 lf 1002,1 hPa 0,0 l/m 0 min 0 min 0 W/m 15,8 km/h (3 Bft) 95,74 %
20.01.2018 23:26 1,9 C 1,7 C 1,1 C 97 % 15 lf 1002,1 hPa 0,0 l/m 0 min 0 min 0 W/m 13,5 km/h (3 Bft) 95,74 %
20.01.2018 23:28 2,0 C 1,7 C 1,1 C 97 % 15 lf 1002,1 hPa 0,0 l/m 0 min 0 min 0 W/m 11,3 km/h (2 Bft) 97,83 %
20.01.2018 23:30 1,9 C 1,7 C 1,1 C 97 % 15 lf 1002,1 hPa 0,0 l/m 0 min 0 min 0 W/m 9,0 km/h (2 Bft) 95,74 %
20.01.2018 23:32 2,0 C 1,7 C 1,1 C 97 % 15 lf 1002,3 hPa 0,0 l/m 0 min 2 min 0 W/m 13,5 km/h (3 Bft) 95,74 %
20.01.2018 23:34 2,0 C 1,7 C 1,1 C 97 % 15 lf 1002,3 hPa 0,0 l/m 0 min 0 min 0 W/m 11,3 km/h (2 Bft) 91,49 %
20.01.2018 23:36 2,0 C 1,7 C 1,1 C 97 % 15 lf 1002,4 hPa 0,0 l/m 0 min 0 min 0 W/m 9,0 km/h (2 Bft) 93,75 %
20.01.2018 23:38 2,0 C 1,7 C 1,1 C 97 % 15 lf 1002,4 hPa 0,0 l/m 0 min 0 min 0 W/m 11,3 km/h (2 Bft) 91,49 %
20.01.2018 23:40 2,0 C 1,7 C 1,1 C 97 % 15 lf 1002,4 hPa 0,0 l/m 0 min 0 min 0 W/m 11,3 km/h (2 Bft) 93,48 %
20.01.2018 23:42 2,0 C 1,7 C 1,1 C 97 % 15 lf 1002,5 hPa 0,0 l/m 0 min 0 min 0 W/m 13,5 km/h (3 Bft) 95,74 %
20.01.2018 23:44 2,0 C 1,7 C 1,1 C 97 % 15 lf 1002,4 hPa 0,0 l/m 0 min 0 min 0 W/m 11,3 km/h (2 Bft) 93,62 %
20.01.2018 23:46 2,0 C 1,7 C 1,1 C 97 % 15 lf 1002,5 hPa 0,0 l/m 0 min 0 min 0 W/m 13,5 km/h (3 Bft) 93,62 %
20.01.2018 23:48 2,0 C 1,7 C 1,1 C 97 % 15 lf 1002,4 hPa 0,0 l/m 0 min 0 min 0 W/m 9,0 km/h (2 Bft) 95,74 %
20.01.2018 23:50 2,1 C 1,7 C 1,1 C 97 % 15 lf 1002,5 hPa 0,0 l/m 0 min 0 min 0 W/m 9,0 km/h (2 Bft) 93,62 %
20.01.2018 23:52 2,1 C 1,7 C 1,1 C 97 % 15 lf 1002,5 hPa 0,0 l/m 0 min 0 min 0 W/m 9,0 km/h (2 Bft) 95,65 %
20.01.2018 23:54 2,1 C 1,7 C 1,1 C 97 % 15 lf 1002,6 hPa 0,0 l/m 0 min 0 min 0 W/m 15,8 km/h (3 Bft) 93,62 %
20.01.2018 23:56 2,1 C 1,7 C 1,1 C 97 % 15 lf 1002,5 hPa 0,0 l/m 0 min 2 min 0 W/m 11,3 km/h (2 Bft) 87,23 %
20.01.2018 23:58 2,1 C 1,7 C 1,1 C 97 % 15 lf 1002,6 hPa 0,0 l/m 0 min 0 min 0 W/m 11,3 km/h (2 Bft) 95,74 %
_ Min-Zeit 04:08 03:48 03:26 00:00 00:00 17:14 - - - - 17:42 00:02
Minimum _ 1,9 C 1,1 C 0,0 C 91 % 0 lf 998,1 hPa - - - - 0,0 km/h (0 Bft) 12,50 %
_ Max-Zeit 12:14 10:54 11:50 19:46 01:40 01:40 01:52 00:00 05:40 10:48 00:34 00:00
Maximum _ 3,6 C 4,4 C 3,9 C 97 % 15 lf 1008,7 hPa 0,2 l/m 0 min 5 min 132 W/m 29,3 km/h
SW (5 Bft)
100,00 %
Durchschnitt _ 2,4 C 2,2 C 1,2 C 94 % 8 lf 1003,3 hPa #3,2 l/m #0 min. #9:17 h 50 W/m 12,1 km/h (2 Bft) 96,09 %
© 2018 W. Hausmann